Wetterdaten: aktuell Samstag, 19.10.2019 03:44
Datum Zeit Temp. A. Feuchte A. Luftdruck Regen Sonnenschein Regendauer ET UV Solar Taupunkt Windchill Windben Empfang
19.10.2019 03:44 11,3 C 90 % 1005,7 hPa 0,0 l/m 0 min 0 min 0,000 mm 0,0 UV-I 0 W/m 9,7 C 10,3 C 14,5 km/h (3 Bft) 96 %
19.10.2019 03:42 11,3 C 90 % 1005,7 hPa 0,0 l/m 0 min 0 min 0,000 mm 0,0 UV-I 0 W/m 9,7 C 9,2 C 16,1 km/h (3 Bft) 98 %
19.10.2019 03:40 11,2 C 90 % 1005,8 hPa 0,0 l/m 0 min 0 min 0,000 mm 0,0 UV-I 0 W/m 9,6 C 8,2 C 20,9 km/h (4 Bft) 96 %
19.10.2019 03:38 11,0 C 91 % 1005,8 hPa 0,0 l/m 0 min 0 min 0,000 mm 0,0 UV-I 0 W/m 9,6 C 7,1 C 19,3 km/h (3 Bft) 93 %
19.10.2019 03:36 10,9 C 91 % 1005,7 hPa 0,0 l/m 0 min 0 min 0,000 mm 0,0 UV-I 0 W/m 9,5 C 8,2 C 19,3 km/h (3 Bft) 98 %
19.10.2019 03:34 10,8 C 91 % 1005,8 hPa 0,0 l/m 0 min 0 min 0,000 mm 0,0 UV-I 0 W/m 9,4 C 9,6 C 14,5 km/h (3 Bft) 94 %
19.10.2019 03:32 10,7 C 91 % 1005,7 hPa 0,0 l/m 0 min 0 min 0,000 mm 0,0 UV-I 0 W/m 9,3 C 10,7 C 11,3 km/h (2 Bft) 96 %
19.10.2019 03:30 10,6 C 91 % 1005,8 hPa 0,0 l/m 0 min 0 min 0,000 mm 0,0 UV-I 0 W/m 9,2 C 9,5 C 12,9 km/h (3 Bft) 98 %
19.10.2019 03:28 10,6 C 90 % 1005,8 hPa 0,0 l/m 0 min 0 min 0,000 mm 0,0 UV-I 0 W/m 9,0 C 10,6 C 9,7 km/h (2 Bft) 98 %
19.10.2019 03:26 10,5 C 90 % 1005,8 hPa 0,0 l/m 0 min 0 min 0,000 mm 0,0 UV-I 0 W/m 8,9 C 10,5 C 8,0 km/h (2 Bft) 96 %
19.10.2019 03:24 10,4 C 90 % 1005,8 hPa 0,0 l/m 0 min 0 min 0,000 mm 0,0 UV-I 0 W/m 8,8 C 10,4 C 8,0 km/h (2 Bft) 98 %
19.10.2019 03:22 10,4 C 90 % 1005,8 hPa 0,0 l/m 0 min 0 min 0,000 mm 0,0 UV-I 0 W/m 8,8 C 10,4 C 14,5 km/h (3 Bft) 98 %
19.10.2019 03:20 10,4 C 90 % 1005,7 hPa 0,0 l/m 0 min 0 min 0,000 mm 0,0 UV-I 0 W/m 8,8 C 10,4 C 6,4 km/h (2 Bft) 91 %
19.10.2019 03:18 10,3 C 90 % 1005,8 hPa 0,0 l/m 0 min 0 min 0,000 mm 0,0 UV-I 0 W/m 8,7 C 10,3 C 3,2 km/h (1 Bft) 96 %
19.10.2019 03:16 10,3 C 90 % 1005,7 hPa 0,0 l/m 0 min 0 min 0,000 mm 0,0 UV-I 0 W/m 8,7 C 10,3 C 8,0 km/h (2 Bft) 96 %
19.10.2019 03:14 10,3 C 90 % 1005,7 hPa 0,0 l/m 0 min 0 min 0,000 mm 0,0 UV-I 0 W/m 8,7 C 10,3 C 8,0 km/h (2 Bft) 96 %
19.10.2019 03:12 10,3 C 90 % 1005,7 hPa 0,0 l/m 0 min 0 min 0,000 mm 0,0 UV-I 0 W/m 8,7 C 10,3 C 4,8 km/h (1 Bft) 96 %
19.10.2019 03:10 10,3 C 90 % 1005,7 hPa 0,0 l/m 0 min 0 min 0,000 mm 0,0 UV-I 0 W/m 8,7 C 10,3 C 4,8 km/h (1 Bft) 94 %
19.10.2019 03:08 10,3 C 89 % 1005,8 hPa 0,0 l/m 0 min 0 min 0,000 mm 0,0 UV-I 0 W/m 8,6 C 10,3 C 6,4 km/h (2 Bft) 96 %
19.10.2019 03:06 10,2 C 89 % 1005,9 hPa 0,0 l/m 0 min 0 min 0,000 mm 0,0 UV-I 0 W/m 8,5 C 10,2 C 6,4 km/h (2 Bft) 93 %
19.10.2019 03:04 10,3 C 89 % 1005,9 hPa 0,0 l/m 0 min 0 min 0,000 mm 0,0 UV-I 0 W/m 8,6 C 10,3 C 3,2 km/h (1 Bft) 96 %
19.10.2019 03:00 10,3 C 89 % 1006,1 hPa 0,0 l/m 0 min 0 min 0,000 mm 0,0 UV-I 0 W/m 8,6 C 10,3 C 3,2 km/h (1 Bft) 94 %
19.10.2019 02:58 10,3 C 89 % 1006,1 hPa 0,0 l/m 0 min 0 min 0,000 mm 0,0 UV-I 0 W/m 8,6 C 10,3 C 6,4 km/h (2 Bft) 93 %
19.10.2019 02:56 10,3 C 89 % 1006,1 hPa 0,0 l/m 0 min 0 min 0,000 mm 0,0 UV-I 0 W/m 8,6 C 10,3 C 6,4 km/h (2 Bft) 96 %
19.10.2019 02:54 10,4 C 88 % 1006,1 hPa 0,0 l/m 0 min 0 min 0,000 mm 0,0 UV-I 0 W/m 8,5 C 10,4 C 6,4 km/h (2 Bft) 96 %
19.10.2019 02:52 10,4 C 88 % 1006,1 hPa 0,0 l/m 0 min 0 min 0,000 mm 0,0 UV-I 0 W/m 8,5 C 10,4 C 6,4 km/h (2 Bft) 96 %
19.10.2019 02:50 10,6 C 88 % 1006,1 hPa 0,0 l/m 0 min 0 min 0,000 mm 0,0 UV-I 0 W/m 8,7 C 10,6 C 4,8 km/h (1 Bft) 98 %
19.10.2019 02:48 10,6 C 88 % 1006,1 hPa 0,0 l/m 0 min 0 min 0,000 mm 0,0 UV-I 0 W/m 8,7 C 10,6 C 12,9 km/h (3 Bft) 96 %
19.10.2019 02:46 10,7 C 88 % 1006,2 hPa 0,0 l/m 0 min 0 min 0,000 mm 0,0 UV-I 0 W/m 8,8 C 10,7 C 4,8 km/h (1 Bft) 96 %
19.10.2019 02:44 10,7 C 88 % 1006,2 hPa 0,0 l/m 0 min 0 min 0,000 mm 0,0 UV-I 0 W/m 8,8 C 10,7 C 6,4 km/h (2 Bft) 96 %
19.10.2019 02:42 10,8 C 88 % 1006,2 hPa 0,0 l/m 0 min 0 min 0,000 mm 0,0 UV-I 0 W/m 8,9 C 10,8 C 1,6 km/h (1 Bft) 96 %
19.10.2019 02:40 10,8 C 88 % 1006,2 hPa 0,0 l/m 0 min 0 min 0,000 mm 0,0 UV-I 0 W/m 8,9 C 10,8 C 6,4 km/h (2 Bft) 96 %
19.10.2019 02:38 10,8 C 88 % 1006,2 hPa 0,0 l/m 0 min 0 min 0,000 mm 0,0 UV-I 0 W/m 8,9 C 10,8 C 8,0 km/h (2 Bft) 91 %
19.10.2019 02:36 10,9 C 88 % 1006,2 hPa 0,0 l/m 0 min 0 min 0,000 mm 0,0 UV-I 0 W/m 9,0 C 10,9 C 6,4 km/h (2 Bft) 96 %
19.10.2019 02:34 10,9 C 88 % 1006,2 hPa 0,0 l/m 0 min 0 min 0,000 mm 0,0 UV-I 0 W/m 9,0 C 10,9 C 6,4 km/h (2 Bft) 96 %
19.10.2019 02:32 10,9 C 88 % 1006,2 hPa 0,0 l/m 0 min 0 min 0,000 mm 0,0 UV-I 0 W/m 9,0 C 10,9 C 4,8 km/h (1 Bft) 98 %
19.10.2019 02:30 11,0 C 88 % 1006,2 hPa 0,0 l/m 0 min 0 min 0,000 mm 0,0 UV-I 0 W/m 9,1 C 11,0 C 4,8 km/h (1 Bft) 98 %
19.10.2019 02:28 11,0 C 88 % 1006,3 hPa 0,0 l/m 0 min 0 min 0,000 mm 0,0 UV-I 0 W/m 9,1 C 11,0 C 4,8 km/h (1 Bft) 98 %
19.10.2019 02:26 11,0 C 88 % 1006,3 hPa 0,0 l/m 0 min 0 min 0,000 mm 0,0 UV-I 0 W/m 9,1 C 11,0 C 6,4 km/h (2 Bft) 98 %
19.10.2019 02:24 11,1 C 88 % 1006,3 hPa 0,0 l/m 0 min 0 min 0,000 mm 0,0 UV-I 0 W/m 9,2 C 11,1 C 6,4 km/h (2 Bft) 96 %
19.10.2019 02:22 11,0 C 88 % 1006,3 hPa 0,0 l/m 0 min 0 min 0,000 mm 0,0 UV-I 0 W/m 9,1 C 11,0 C 8,0 km/h (2 Bft) 98 %
19.10.2019 02:20 11,0 C 88 % 1006,4 hPa 0,0 l/m 0 min 0 min 0,000 mm 0,0 UV-I 0 W/m 9,1 C 11,0 C 11,3 km/h (2 Bft) 98 %
19.10.2019 02:18 11,0 C 88 % 1006,4 hPa 0,0 l/m 0 min 0 min 0,000 mm 0,0 UV-I 0 W/m 9,1 C 11,0 C 6,4 km/h (2 Bft) 100 %
19.10.2019 02:16 10,9 C 88 % 1006,4 hPa 0,0 l/m 0 min 0 min 0,000 mm 0,0 UV-I 0 W/m 9,0 C 10,9 C 11,3 km/h (2 Bft) 98 %
19.10.2019 02:14 10,9 C 88 % 1006,4 hPa 0,0 l/m 0 min 0 min 0,000 mm 0,0 UV-I 0 W/m 9,0 C 10,7 C 9,7 km/h (2 Bft) 100 %
19.10.2019 02:12 10,8 C 88 % 1006,3 hPa 0,0 l/m 0 min 0 min 0,000 mm 0,0 UV-I 0 W/m 8,9 C 10,4 C 9,7 km/h (2 Bft) 96 %
19.10.2019 02:10 10,8 C 88 % 1006,4 hPa 0,0 l/m 0 min 0 min 0,000 mm 0,0 UV-I 0 W/m 8,9 C 10,8 C 11,3 km/h (2 Bft) 98 %
19.10.2019 02:08 10,8 C 88 % 1006,4 hPa 0,0 l/m 0 min 0 min 0,000 mm 0,0 UV-I 0 W/m 8,9 C 10,8 C 8,0 km/h (2 Bft) 100 %
19.10.2019 02:06 10,7 C 88 % 1006,4 hPa 0,0 l/m 0 min 0 min 0,000 mm 0,0 UV-I 0 W/m 8,8 C 10,0 C 9,7 km/h (2 Bft) 100 %
19.10.2019 02:04 10,7 C 88 % 1006,4 hPa 0,0 l/m 0 min 0 min 0,026 mm 0,0 UV-I 0 W/m 8,8 C 10,7 C 11,3 km/h (2 Bft) 99 %
19.10.2019 02:00 10,7 C 88 % 1006,5 hPa 0,0 l/m 0 min 0 min 0,000 mm 0,0 UV-I 0 W/m 8,8 C 10,7 C 6,4 km/h (2 Bft) 100 %
19.10.2019 01:58 10,7 C 88 % 1006,5 hPa 0,0 l/m 0 min 0 min 0,000 mm 0,0 UV-I 0 W/m 8,8 C 10,7 C 8,0 km/h (2 Bft) 100 %
19.10.2019 01:56 10,7 C 88 % 1006,5 hPa 0,0 l/m 0 min 0 min 0,000 mm 0,0 UV-I 0 W/m 8,8 C 10,7 C 9,7 km/h (2 Bft) 98 %
19.10.2019 01:54 10,8 C 87 % 1006,4 hPa 0,0 l/m 0 min 0 min 0,000 mm 0,0 UV-I 0 W/m 8,7 C 10,8 C 9,7 km/h (2 Bft) 100 %
19.10.2019 01:52 10,8 C 88 % 1006,5 hPa 0,0 l/m 0 min 0 min 0,000 mm 0,0 UV-I 0 W/m 8,9 C 9,8 C 11,3 km/h (2 Bft) 96 %
19.10.2019 01:50 10,8 C 87 % 1006,5 hPa 0,0 l/m 0 min 0 min 0,000 mm 0,0 UV-I 0 W/m 8,7 C 10,8 C 11,3 km/h (2 Bft) 100 %
19.10.2019 01:48 10,8 C 87 % 1006,6 hPa 0,0 l/m 0 min 0 min 0,000 mm 0,0 UV-I 0 W/m 8,7 C 10,8 C 12,9 km/h (3 Bft) 100 %
19.10.2019 01:46 10,8 C 87 % 1006,6 hPa 0,0 l/m 0 min 0 min 0,000 mm 0,0 UV-I 0 W/m 8,7 C 10,8 C 9,7 km/h (2 Bft) 100 %
19.10.2019 01:44 10,8 C 87 % 1006,6 hPa 0,0 l/m 0 min 0 min 0,000 mm 0,0 UV-I 0 W/m 8,7 C 10,8 C 12,9 km/h (3 Bft) 98 %
19.10.2019 01:42 10,8 C 87 % 1006,7 hPa 0,0 l/m 0 min 0 min 0,000 mm 0,0 UV-I 0 W/m 8,7 C 10,8 C 6,4 km/h (2 Bft) 98 %
19.10.2019 01:40 10,8 C 87 % 1006,7 hPa 0,0 l/m 0 min 0 min 0,000 mm 0,0 UV-I 0 W/m 8,7 C 10,8 C 11,3 km/h (2 Bft) 98 %
19.10.2019 01:38 10,8 C 87 % 1006,7 hPa 0,0 l/m 0 min 0 min 0,000 mm 0,0 UV-I 0 W/m 8,7 C 10,8 C 11,3 km/h (2 Bft) 98 %
19.10.2019 01:36 10,8 C 87 % 1006,6 hPa 0,0 l/m 0 min 0 min 0,000 mm 0,0 UV-I 0 W/m 8,7 C 10,2 C 11,3 km/h (2 Bft) 98 %
19.10.2019 01:34 10,8 C 87 % 1006,7 hPa 0,0 l/m 0 min 0 min 0,000 mm 0,0 UV-I 0 W/m 8,7 C 10,8 C 8,0 km/h (2 Bft) 98 %
19.10.2019 01:32 10,8 C 87 % 1006,7 hPa 0,0 l/m 0 min 0 min 0,000 mm 0,0 UV-I 0 W/m 8,7 C 10,8 C 6,4 km/h (2 Bft) 98 %
19.10.2019 01:30 10,8 C 87 % 1006,7 hPa 0,0 l/m 0 min 0 min 0,000 mm 0,0 UV-I 0 W/m 8,7 C 10,2 C 9,7 km/h (2 Bft) 98 %
19.10.2019 01:28 10,8 C 87 % 1006,7 hPa 0,0 l/m 0 min 0 min 0,000 mm 0,0 UV-I 0 W/m 8,7 C 9,1 C 14,5 km/h (3 Bft) 96 %
19.10.2019 01:26 10,7 C 87 % 1006,7 hPa 0,0 l/m 0 min 0 min 0,000 mm 0,0 UV-I 0 W/m 8,6 C 10,1 C 12,9 km/h (3 Bft) 96 %
19.10.2019 01:24 10,7 C 87 % 1006,7 hPa 0,0 l/m 0 min 0 min 0,000 mm 0,0 UV-I 0 W/m 8,6 C 9,2 C 12,9 km/h (3 Bft) 98 %
19.10.2019 01:22 10,7 C 87 % 1006,8 hPa 0,0 l/m 0 min 0 min 0,000 mm 0,0 UV-I 0 W/m 8,6 C 10,4 C 11,3 km/h (2 Bft) 98 %
19.10.2019 01:20 10,7 C 87 % 1006,8 hPa 0,0 l/m 0 min 0 min 0,000 mm 0,0 UV-I 0 W/m 8,6 C 9,2 C 14,5 km/h (3 Bft) 94 %
19.10.2019 01:18 10,7 C 87 % 1006,8 hPa 0,0 l/m 0 min 0 min 0,000 mm 0,0 UV-I 0 W/m 8,6 C 10,3 C 11,3 km/h (2 Bft) 91 %
19.10.2019 01:16 10,7 C 87 % 1006,8 hPa 0,0 l/m 0 min 0 min 0,000 mm 0,0 UV-I 0 W/m 8,6 C 10,7 C 11,3 km/h (2 Bft) 96 %
19.10.2019 01:14 10,7 C 87 % 1006,8 hPa 0,0 l/m 0 min 0 min 0,000 mm 0,0 UV-I 0 W/m 8,6 C 10,7 C 9,7 km/h (2 Bft) 94 %
19.10.2019 01:12 10,7 C 87 % 1006,9 hPa 0,0 l/m 0 min 0 min 0,000 mm 0,0 UV-I 0 W/m 8,6 C 10,7 C 11,3 km/h (2 Bft) 96 %
19.10.2019 01:10 10,8 C 87 % 1006,9 hPa 0,0 l/m 0 min 0 min 0,000 mm 0,0 UV-I 0 W/m 8,7 C 9,0 C 14,5 km/h (3 Bft) 96 %
19.10.2019 01:08 10,8 C 86 % 1006,9 hPa 0,0 l/m 0 min 0 min 0,000 mm 0,0 UV-I 0 W/m 8,6 C 10,5 C 12,9 km/h (3 Bft) 96 %
19.10.2019 01:06 10,8 C 86 % 1006,9 hPa 0,0 l/m 0 min 0 min 0,000 mm 0,0 UV-I 0 W/m 8,6 C 10,1 C 11,3 km/h (2 Bft) 93 %
19.10.2019 01:04 10,8 C 86 % 1007,0 hPa 0,0 l/m 0 min 0 min 0,025 mm 0,0 UV-I 0 W/m 8,6 C 9,4 C 16,1 km/h (3 Bft) 96 %
19.10.2019 01:00 10,8 C 86 % 1007,0 hPa 0,0 l/m 0 min 0 min 0,000 mm 0,0 UV-I 0 W/m 8,6 C 9,6 C 12,9 km/h (3 Bft) 94 %
19.10.2019 00:58 10,8 C 86 % 1006,9 hPa 0,0 l/m 0 min 0 min 0,000 mm 0,0 UV-I 0 W/m 8,6 C 10,8 C 9,7 km/h (2 Bft) 96 %
19.10.2019 00:56 10,8 C 86 % 1006,9 hPa 0,0 l/m 0 min 0 min 0,000 mm 0,0 UV-I 0 W/m 8,6 C 10,7 C 9,7 km/h (2 Bft) 100 %
19.10.2019 00:54 10,9 C 86 % 1007,0 hPa 0,0 l/m 0 min 0 min 0,000 mm 0,0 UV-I 0 W/m 8,7 C 10,9 C 9,7 km/h (2 Bft) 98 %
19.10.2019 00:52 10,9 C 86 % 1007,0 hPa 0,0 l/m 0 min 0 min 0,000 mm 0,0 UV-I 0 W/m 8,7 C 10,1 C 11,3 km/h (2 Bft) 98 %
19.10.2019 00:50 10,9 C 86 % 1007,0 hPa 0,0 l/m 0 min 0 min 0,000 mm 0,0 UV-I 0 W/m 8,7 C 10,6 C 11,3 km/h (2 Bft) 100 %
19.10.2019 00:48 11,0 C 85 % 1007,0 hPa 0,0 l/m 0 min 0 min 0,000 mm 0,0 UV-I 0 W/m 8,6 C 10,7 C 9,7 km/h (2 Bft) 98 %
19.10.2019 00:46 11,0 C 85 % 1007,1 hPa 0,0 l/m 0 min 0 min 0,000 mm 0,0 UV-I 0 W/m 8,6 C 10,8 C 9,7 km/h (2 Bft) 100 %
19.10.2019 00:44 11,1 C 85 % 1007,0 hPa 0,0 l/m 0 min 0 min 0,000 mm 0,0 UV-I 0 W/m 8,7 C 9,9 C 11,3 km/h (2 Bft) 98 %
19.10.2019 00:42 11,1 C 85 % 1007,0 hPa 0,0 l/m 0 min 0 min 0,000 mm 0,0 UV-I 0 W/m 8,7 C 10,4 C 12,9 km/h (3 Bft) 100 %
19.10.2019 00:40 11,1 C 85 % 1006,9 hPa 0,0 l/m 0 min 0 min 0,000 mm 0,0 UV-I 0 W/m 8,7 C 9,0 C 14,5 km/h (3 Bft) 100 %
19.10.2019 00:38 11,1 C 85 % 1006,9 hPa 0,0 l/m 0 min 0 min 0,000 mm 0,0 UV-I 0 W/m 8,7 C 8,6 C 14,5 km/h (3 Bft) 100 %
19.10.2019 00:36 11,1 C 85 % 1006,8 hPa 0,0 l/m 0 min 0 min 0,000 mm 0,0 UV-I 0 W/m 8,7 C 9,3 C 12,9 km/h (3 Bft) 100 %
19.10.2019 00:34 11,1 C 85 % 1006,9 hPa 0,0 l/m 0 min 0 min 0,000 mm 0,0 UV-I 0 W/m 8,7 C 8,1 C 16,1 km/h (3 Bft) 98 %
19.10.2019 00:32 11,1 C 85 % 1006,9 hPa 0,0 l/m 0 min 0 min 0,000 mm 0,0 UV-I 0 W/m 8,7 C 8,5 C 17,7 km/h (3 Bft) 100 %
19.10.2019 00:30 11,1 C 85 % 1007,0 hPa 0,0 l/m 0 min 0 min 0,000 mm 0,0 UV-I 0 W/m 8,7 C 9,5 C 14,5 km/h (3 Bft) 96 %
19.10.2019 00:28 11,1 C 85 % 1007,0 hPa 0,0 l/m 0 min 0 min 0,000 mm 0,0 UV-I 0 W/m 8,7 C 9,2 C 17,7 km/h (3 Bft) 100 %
19.10.2019 00:26 11,1 C 85 % 1006,9 hPa 0,0 l/m 0 min 0 min 0,000 mm 0,0 UV-I 0 W/m 8,7 C 8,5 C 16,1 km/h (3 Bft) 98 %
19.10.2019 00:24 11,1 C 85 % 1007,0 hPa 0,0 l/m 0 min 0 min 0,000 mm 0,0 UV-I 0 W/m 8,7 C 9,5 C 14,5 km/h (3 Bft) 100 %
19.10.2019 00:20 11,1 C 85 % 1007,0 hPa 0,0 l/m 0 min 0 min 0,000 mm 0,0 UV-I 0 W/m 8,7 C 11,1 C 9,7 km/h (2 Bft) 100 %
19.10.2019 00:18 11,2 C 85 % 1007,0 hPa 0,0 l/m 0 min 0 min 0,000 mm 0,0 UV-I 0 W/m 8,8 C 10,4 C 11,3 km/h (2 Bft) 100 %
19.10.2019 00:16 11,2 C 85 % 1007,1 hPa 0,0 l/m 0 min 0 min 0,000 mm 0,0 UV-I 0 W/m 8,8 C 11,2 C 12,9 km/h (3 Bft) 100 %
19.10.2019 00:14 11,2 C 85 % 1007,1 hPa 0,0 l/m 0 min 0 min 0,000 mm 0,0 UV-I 0 W/m 8,8 C 11,2 C 6,4 km/h (2 Bft) 100 %
19.10.2019 00:12 11,2 C 85 % 1007,1 hPa 0,0 l/m 0 min 0 min 0,000 mm 0,0 UV-I 0 W/m 8,8 C 11,2 C 9,7 km/h (2 Bft) 100 %
19.10.2019 00:10 11,2 C 85 % 1007,2 hPa 0,0 l/m 0 min 0 min 0,000 mm 0,0 UV-I 0 W/m 8,8 C 9,8 C 11,3 km/h (2 Bft) 100 %
19.10.2019 00:08 11,2 C 85 % 1007,1 hPa 0,0 l/m 0 min 0 min 0,000 mm 0,0 UV-I 0 W/m 8,8 C 11,0 C 12,9 km/h (3 Bft) 98 %
19.10.2019 00:06 11,2 C 85 % 1007,1 hPa 0,0 l/m 0 min 0 min 0,000 mm 0,0 UV-I 0 W/m 8,8 C 10,9 C 9,7 km/h (2 Bft) 100 %
19.10.2019 00:04 11,2 C 85 % 1007,2 hPa 0,0 l/m 0 min 0 min 0,000 mm 0,0 UV-I 0 W/m 8,8 C 11,2 C 8,0 km/h (2 Bft) 100 %
19.10.2019 00:00 11,3 C 85 % 1007,2 hPa 0,0 l/m 0 min 0 min 0,000 mm 0,0 UV-I 0 W/m 8,9 C 11,3 C 9,7 km/h (2 Bft) 100 %
18.10.2019 23:58 11,3 C 85 % 1007,2 hPa 0,0 l/m 0 min 0 min 0,000 mm 0,0 UV-I 0 W/m 8,9 C 11,3 C 8,0 km/h (2 Bft) 94 %
18.10.2019 23:56 11,3 C 85 % 1007,2 hPa 0,0 l/m 0 min 0 min 0,000 mm 0,0 UV-I 0 W/m 8,9 C 11,3 C 11,3 km/h (2 Bft) 98 %
18.10.2019 23:54 11,3 C 84 % 1007,2 hPa 0,0 l/m 0 min 0 min 0,000 mm 0,0 UV-I 0 W/m 8,7 C 10,2 C 14,5 km/h (3 Bft) 98 %
18.10.2019 23:52 11,3 C 84 % 1007,2 hPa 0,0 l/m 0 min 0 min 0,000 mm 0,0 UV-I 0 W/m 8,7 C 11,3 C 6,4 km/h (2 Bft) 93 %
18.10.2019 23:50 11,3 C 84 % 1007,3 hPa 0,0 l/m 0 min 0 min 0,000 mm 0,0 UV-I 0 W/m 8,7 C 10,1 C 12,9 km/h (3 Bft) 94 %
18.10.2019 23:48 11,3 C 84 % 1007,3 hPa 0,0 l/m 0 min 0 min 0,000 mm 0,0 UV-I 0 W/m 8,7 C 10,0 C 12,9 km/h (3 Bft) 98 %
18.10.2019 23:46 11,3 C 84 % 1007,3 hPa 0,0 l/m 0 min 0 min 0,000 mm 0,0 UV-I 0 W/m 8,7 C 11,3 C 6,4 km/h (2 Bft) 96 %
18.10.2019 23:44 11,4 C 84 % 1007,3 hPa 0,0 l/m 0 min 0 min 0,000 mm 0,0 UV-I 0 W/m 8,8 C 11,4 C 8,0 km/h (2 Bft) 96 %
18.10.2019 23:42 11,3 C 84 % 1007,3 hPa 0,0 l/m 0 min 0 min 0,000 mm 0,0 UV-I 0 W/m 8,7 C 11,3 C 11,3 km/h (2 Bft) 94 %
18.10.2019 23:40 11,4 C 84 % 1007,2 hPa 0,0 l/m 0 min 0 min 0,000 mm 0,0 UV-I 0 W/m 8,8 C 11,4 C 6,4 km/h (2 Bft) 96 %
18.10.2019 23:38 11,4 C 84 % 1007,2 hPa 0,0 l/m 0 min 0 min 0,000 mm 0,0 UV-I 0 W/m 8,8 C 11,4 C 8,0 km/h (2 Bft) 96 %
18.10.2019 23:36 11,4 C 84 % 1007,2 hPa 0,0 l/m 0 min 0 min 0,000 mm 0,0 UV-I 0 W/m 8,8 C 11,4 C 9,7 km/h (2 Bft) 91 %
18.10.2019 23:34 11,4 C 84 % 1007,2 hPa 0,0 l/m 0 min 0 min 0,000 mm 0,0 UV-I 0 W/m 8,8 C 10,9 C 11,3 km/h (2 Bft) 94 %
18.10.2019 23:32 11,4 C 84 % 1007,2 hPa 0,0 l/m 0 min 0 min 0,000 mm 0,0 UV-I 0 W/m 8,8 C 9,8 C 14,5 km/h (3 Bft) 94 %
18.10.2019 23:30 11,4 C 84 % 1007,2 hPa 0,0 l/m 0 min 0 min 0,000 mm 0,0 UV-I 0 W/m 8,8 C 10,2 C 12,9 km/h (3 Bft) 94 %
18.10.2019 23:28 11,4 C 84 % 1007,1 hPa 0,0 l/m 0 min 0 min 0,000 mm 0,0 UV-I 0 W/m 8,8 C 9,5 C 16,1 km/h (3 Bft) 96 %
18.10.2019 23:26 11,3 C 84 % 1007,2 hPa 0,0 l/m 0 min 0 min 0,000 mm 0,0 UV-I 0 W/m 8,7 C 10,7 C 11,3 km/h (2 Bft) 96 %
18.10.2019 23:24 11,3 C 84 % 1007,2 hPa 0,0 l/m 0 min 0 min 0,000 mm 0,0 UV-I 0 W/m 8,7 C 10,6 C 9,7 km/h (2 Bft) 94 %
18.10.2019 23:22 11,3 C 84 % 1007,3 hPa 0,0 l/m 0 min 0 min 0,000 mm 0,0 UV-I 0 W/m 8,7 C 11,3 C 12,9 km/h (3 Bft) 96 %
18.10.2019 23:20 11,3 C 84 % 1007,2 hPa 0,0 l/m 0 min 0 min 0,000 mm 0,0 UV-I 0 W/m 8,7 C 10,0 C 14,5 km/h (3 Bft) 96 %
18.10.2019 23:18 11,3 C 84 % 1007,3 hPa 0,0 l/m 0 min 0 min 0,000 mm 0,0 UV-I 0 W/m 8,7 C 11,3 C 11,3 km/h (2 Bft) 96 %
18.10.2019 23:16 11,3 C 84 % 1007,3 hPa 0,0 l/m 0 min 0 min 0,000 mm 0,0 UV-I 0 W/m 8,7 C 11,3 C 8,0 km/h (2 Bft) 89 %
18.10.2019 23:14 11,3 C 84 % 1007,3 hPa 0,0 l/m 0 min 0 min 0,000 mm 0,0 UV-I 0 W/m 8,7 C 10,2 C 12,9 km/h (3 Bft) 94 %
18.10.2019 23:12 11,3 C 84 % 1007,2 hPa 0,0 l/m 0 min 0 min 0,000 mm 0,0 UV-I 0 W/m 8,7 C 11,3 C 9,7 km/h (2 Bft) 94 %
18.10.2019 23:10 11,3 C 84 % 1007,3 hPa 0,0 l/m 0 min 0 min 0,000 mm 0,0 UV-I 0 W/m 8,7 C 9,4 C 14,5 km/h (3 Bft) 94 %
18.10.2019 23:08 11,3 C 84 % 1007,3 hPa 0,0 l/m 0 min 0 min 0,000 mm 0,0 UV-I 0 W/m 8,7 C 9,3 C 19,3 km/h (3 Bft) 94 %
18.10.2019 23:06 11,3 C 85 % 1007,4 hPa 0,0 l/m 0 min 0 min 0,000 mm 0,0 UV-I 0 W/m 8,9 C 9,8 C 12,9 km/h (3 Bft) 94 %
18.10.2019 23:04 11,3 C 85 % 1007,3 hPa 0,0 l/m 0 min 0 min 0,025 mm 0,0 UV-I 0 W/m 8,9 C 10,8 C 11,3 km/h (2 Bft) 96 %
18.10.2019 23:00 11,3 C 85 % 1007,3 hPa 0,0 l/m 0 min 0 min 0,000 mm 0,0 UV-I 0 W/m 8,9 C 10,7 C 11,3 km/h (2 Bft) 98 %
18.10.2019 22:58 11,3 C 85 % 1007,3 hPa 0,0 l/m 0 min 0 min 0,000 mm 0,0 UV-I 0 W/m 8,9 C 11,3 C 8,0 km/h (2 Bft) 98 %
18.10.2019 22:56 11,3 C 85 % 1007,3 hPa 0,0 l/m 0 min 0 min 0,000 mm 0,0 UV-I 0 W/m 8,9 C 11,3 C 9,7 km/h (2 Bft) 98 %
18.10.2019 22:54 11,3 C 85 % 1007,3 hPa 0,0 l/m 0 min 0 min 0,000 mm 0,0 UV-I 0 W/m 8,9 C 11,0 C 11,3 km/h (2 Bft) 98 %
18.10.2019 22:52 11,3 C 85 % 1007,3 hPa 0,0 l/m 0 min 0 min 0,000 mm 0,0 UV-I 0 W/m 8,9 C 9,7 C 12,9 km/h (3 Bft) 98 %
18.10.2019 22:50 11,2 C 85 % 1007,3 hPa 0,0 l/m 0 min 0 min 0,000 mm 0,0 UV-I 0 W/m 8,8 C 9,4 C 17,7 km/h (3 Bft) 98 %
18.10.2019 22:48 11,2 C 85 % 1007,3 hPa 0,0 l/m 0 min 0 min 0,000 mm 0,0 UV-I 0 W/m 8,8 C 9,1 C 16,1 km/h (3 Bft) 98 %
18.10.2019 22:46 11,2 C 85 % 1007,3 hPa 0,0 l/m 0 min 0 min 0,000 mm 0,0 UV-I 0 W/m 8,8 C 10,1 C 11,3 km/h (2 Bft) 98 %
18.10.2019 22:44 11,2 C 85 % 1007,3 hPa 0,0 l/m 0 min 0 min 0,000 mm 0,0 UV-I 0 W/m 8,8 C 10,6 C 9,7 km/h (2 Bft) 98 %
18.10.2019 22:42 11,2 C 85 % 1007,3 hPa 0,0 l/m 0 min 0 min 0,000 mm 0,0 UV-I 0 W/m 8,8 C 8,7 C 16,1 km/h (3 Bft) 98 %
18.10.2019 22:40 11,2 C 85 % 1007,4 hPa 0,0 l/m 0 min 0 min 0,000 mm 0,0 UV-I 0 W/m 8,8 C 9,3 C 12,9 km/h (3 Bft) 94 %
18.10.2019 22:38 11,2 C 85 % 1007,4 hPa 0,0 l/m 0 min 0 min 0,000 mm 0,0 UV-I 0 W/m 8,8 C 8,9 C 16,1 km/h (3 Bft) 98 %
18.10.2019 22:36 11,2 C 85 % 1007,4 hPa 0,0 l/m 0 min 0 min 0,000 mm 0,0 UV-I 0 W/m 8,8 C 11,2 C 11,3 km/h (2 Bft) 98 %
18.10.2019 22:34 11,2 C 85 % 1007,5 hPa 0,0 l/m 0 min 0 min 0,000 mm 0,0 UV-I 0 W/m 8,8 C 10,9 C 14,5 km/h (3 Bft) 94 %
18.10.2019 22:32 11,2 C 85 % 1007,5 hPa 0,0 l/m 0 min 0 min 0,000 mm 0,0 UV-I 0 W/m 8,8 C 10,8 C 12,9 km/h (3 Bft) 96 %
18.10.2019 22:30 11,2 C 85 % 1007,5 hPa 0,0 l/m 0 min 0 min 0,000 mm 0,0 UV-I 0 W/m 8,8 C 9,7 C 14,5 km/h (3 Bft) 96 %
18.10.2019 22:28 11,2 C 85 % 1007,5 hPa 0,0 l/m 0 min 0 min 0,000 mm 0,0 UV-I 0 W/m 8,8 C 10,2 C 12,9 km/h (3 Bft) 96 %
18.10.2019 22:26 11,2 C 85 % 1007,5 hPa 0,0 l/m 0 min 0 min 0,000 mm 0,0 UV-I 0 W/m 8,8 C 10,4 C 12,9 km/h (3 Bft) 94 %
18.10.2019 22:24 11,2 C 85 % 1007,5 hPa 0,0 l/m 0 min 0 min 0,000 mm 0,0 UV-I 0 W/m 8,8 C 10,4 C 12,9 km/h (3 Bft) 94 %
18.10.2019 22:22 11,2 C 85 % 1007,6 hPa 0,0 l/m 0 min 0 min 0,000 mm 0,0 UV-I 0 W/m 8,8 C 9,4 C 12,9 km/h (3 Bft) 96 %
18.10.2019 22:20 11,2 C 85 % 1007,5 hPa 0,0 l/m 0 min 0 min 0,000 mm 0,0 UV-I 0 W/m 8,8 C 9,9 C 12,9 km/h (3 Bft) 96 %
18.10.2019 22:18 11,2 C 85 % 1007,6 hPa 0,0 l/m 0 min 0 min 0,000 mm 0,0 UV-I 0 W/m 8,8 C 8,9 C 14,5 km/h (3 Bft) 96 %
18.10.2019 22:16 11,2 C 85 % 1007,5 hPa 0,0 l/m 0 min 0 min 0,000 mm 0,0 UV-I 0 W/m 8,8 C 10,2 C 12,9 km/h (3 Bft) 96 %
18.10.2019 22:14 11,2 C 85 % 1007,5 hPa 0,0 l/m 0 min 0 min 0,000 mm 0,0 UV-I 0 W/m 8,8 C 11,0 C 14,5 km/h (3 Bft) 96 %
18.10.2019 22:12 11,2 C 85 % 1007,6 hPa 0,0 l/m 0 min 0 min 0,000 mm 0,0 UV-I 0 W/m 8,8 C 9,9 C 11,3 km/h (2 Bft) 94 %
18.10.2019 22:10 11,2 C 85 % 1007,5 hPa 0,0 l/m 0 min 0 min 0,000 mm 0,0 UV-I 0 W/m 8,8 C 10,1 C 12,9 km/h (3 Bft) 98 %
18.10.2019 22:08 11,2 C 85 % 1007,6 hPa 0,0 l/m 0 min 0 min 0,000 mm 0,0 UV-I 0 W/m 8,8 C 9,6 C 12,9 km/h (3 Bft) 98 %
18.10.2019 22:06 11,2 C 85 % 1007,6 hPa 0,0 l/m 0 min 0 min 0,000 mm 0,0 UV-I 0 W/m 8,8 C 8,1 C 17,7 km/h (3 Bft) 98 %
18.10.2019 22:04 11,2 C 85 % 1007,5 hPa 0,0 l/m 0 min 0 min 0,026 mm 0,0 UV-I 0 W/m 8,8 C 8,6 C 17,7 km/h (3 Bft) 98 %
18.10.2019 22:00 11,2 C 85 % 1007,5 hPa 0,0 l/m 0 min 0 min 0,000 mm 0,0 UV-I 0 W/m 8,8 C 8,5 C 22,5 km/h (4 Bft) 98 %
18.10.2019 21:58 11,2 C 85 % 1007,6 hPa 0,0 l/m 0 min 0 min 0,000 mm 0,0 UV-I 0 W/m 8,8 C 9,4 C 14,5 km/h (3 Bft) 94 %
18.10.2019 21:56 11,1 C 85 % 1007,6 hPa 0,0 l/m 0 min 0 min 0,000 mm 0,0 UV-I 0 W/m 8,7 C 10,7 C 9,7 km/h (2 Bft) 94 %
18.10.2019 21:54 11,1 C 85 % 1007,6 hPa 0,0 l/m 0 min 0 min 0,000 mm 0,0 UV-I 0 W/m 8,7 C 9,1 C 14,5 km/h (3 Bft) 98 %
18.10.2019 21:52 11,1 C 85 % 1007,6 hPa 0,0 l/m 0 min 0 min 0,000 mm 0,0 UV-I 0 W/m 8,7 C 10,3 C 14,5 km/h (3 Bft) 93 %
18.10.2019 21:50 11,1 C 85 % 1007,6 hPa 0,0 l/m 0 min 0 min 0,000 mm 0,0 UV-I 0 W/m 8,7 C 9,0 C 16,1 km/h (3 Bft) 96 %
18.10.2019 21:48 11,1 C 85 % 1007,6 hPa 0,0 l/m 0 min 0 min 0,000 mm 0,0 UV-I 0 W/m 8,7 C 11,1 C 9,7 km/h (2 Bft) 96 %
18.10.2019 21:46 11,1 C 85 % 1007,7 hPa 0,0 l/m 0 min 0 min 0,000 mm 0,0 UV-I 0 W/m 8,7 C 10,3 C 12,9 km/h (3 Bft) 98 %
18.10.2019 21:44 11,1 C 85 % 1007,7 hPa 0,0 l/m 0 min 0 min 0,000 mm 0,0 UV-I 0 W/m 8,7 C 10,2 C 14,5 km/h (3 Bft) 98 %
18.10.2019 21:42 11,0 C 85 % 1007,8 hPa 0,0 l/m 0 min 0 min 0,000 mm 0,0 UV-I 0 W/m 8,6 C 10,4 C 12,9 km/h (3 Bft) 96 %
18.10.2019 21:40 11,0 C 85 % 1007,8 hPa 0,0 l/m 0 min 0 min 0,000 mm 0,0 UV-I 0 W/m 8,6 C 9,5 C 16,1 km/h (3 Bft) 98 %
18.10.2019 21:38 10,9 C 85 % 1007,7 hPa 0,0 l/m 0 min 0 min 0,000 mm 0,0 UV-I 0 W/m 8,5 C 9,5 C 11,3 km/h (2 Bft) 98 %
18.10.2019 21:36 10,9 C 85 % 1007,8 hPa 0,0 l/m 0 min 0 min 0,000 mm 0,0 UV-I 0 W/m 8,5 C 9,9 C 11,3 km/h (2 Bft) 98 %
18.10.2019 21:34 10,9 C 85 % 1007,8 hPa 0,0 l/m 0 min 0 min 0,000 mm 0,0 UV-I 0 W/m 8,5 C 10,0 C 12,9 km/h (3 Bft) 96 %
18.10.2019 21:32 10,9 C 85 % 1007,8 hPa 0,0 l/m 0 min 0 min 0,000 mm 0,0 UV-I 0 W/m 8,5 C 10,9 C 9,7 km/h (2 Bft) 98 %
18.10.2019 21:30 10,9 C 85 % 1007,8 hPa 0,0 l/m 0 min 0 min 0,000 mm 0,0 UV-I 0 W/m 8,5 C 10,6 C 11,3 km/h (2 Bft) 94 %
18.10.2019 21:28 10,9 C 85 % 1007,8 hPa 0,0 l/m 0 min 0 min 0,000 mm 0,0 UV-I 0 W/m 8,5 C 10,6 C 11,3 km/h (2 Bft) 98 %
18.10.2019 21:26 10,9 C 86 % 1007,8 hPa 0,0 l/m 0 min 0 min 0,000 mm 0,0 UV-I 0 W/m 8,7 C 9,8 C 11,3 km/h (2 Bft) 98 %
18.10.2019 21:24 10,9 C 86 % 1007,8 hPa 0,0 l/m 0 min 0 min 0,000 mm 0,0 UV-I 0 W/m 8,7 C 10,0 C 11,3 km/h (2 Bft) 98 %
18.10.2019 21:22 10,8 C 86 % 1007,9 hPa 0,0 l/m 0 min 0 min 0,000 mm 0,0 UV-I 0 W/m 8,6 C 9,5 C 12,9 km/h (3 Bft) 96 %
18.10.2019 21:20 10,8 C 86 % 1007,9 hPa 0,0 l/m 0 min 0 min 0,000 mm 0,0 UV-I 0 W/m 8,6 C 9,8 C 14,5 km/h (3 Bft) 96 %
18.10.2019 21:18 10,8 C 86 % 1007,9 hPa 0,0 l/m 0 min 0 min 0,000 mm 0,0 UV-I 0 W/m 8,6 C 10,8 C 6,4 km/h (2 Bft) 100 %
18.10.2019 21:16 10,8 C 86 % 1007,9 hPa 0,0 l/m 0 min 0 min 0,000 mm 0,0 UV-I 0 W/m 8,6 C 8,4 C 16,1 km/h (3 Bft) 98 %
18.10.2019 21:14 10,8 C 85 % 1007,9 hPa 0,0 l/m 0 min 0 min 0,000 mm 0,0 UV-I 0 W/m 8,4 C 10,5 C 12,9 km/h (3 Bft) 98 %
18.10.2019 21:12 10,8 C 85 % 1008,0 hPa 0,0 l/m 0 min 0 min 0,000 mm 0,0 UV-I 0 W/m 8,4 C 10,8 C 9,7 km/h (2 Bft) 94 %
18.10.2019 21:10 10,8 C 85 % 1008,0 hPa 0,0 l/m 0 min 0 min 0,000 mm 0,0 UV-I 0 W/m 8,4 C 10,8 C 9,7 km/h (2 Bft) 98 %
18.10.2019 21:08 10,8 C 85 % 1007,9 hPa 0,0 l/m 0 min 0 min 0,000 mm 0,0 UV-I 0 W/m 8,4 C 10,5 C 12,9 km/h (3 Bft) 96 %
18.10.2019 21:06 10,8 C 85 % 1007,9 hPa 0,0 l/m 0 min 0 min 0,000 mm 0,0 UV-I 0 W/m 8,4 C 10,8 C 9,7 km/h (2 Bft) 94 %
18.10.2019 21:04 10,8 C 85 % 1007,9 hPa 0,0 l/m 0 min 0 min 0,025 mm 0,0 UV-I 0 W/m 8,4 C 10,8 C 8,0 km/h (2 Bft) 97 %
18.10.2019 21:00 10,8 C 85 % 1007,9 hPa 0,0 l/m 0 min 0 min 0,000 mm 0,0 UV-I 0 W/m 8,4 C 10,8 C 11,3 km/h (2 Bft) 94 %
18.10.2019 20:58 10,8 C 85 % 1007,9 hPa 0,0 l/m 0 min 0 min 0,000 mm 0,0 UV-I 0 W/m 8,4 C 10,8 C 6,4 km/h (2 Bft) 98 %
18.10.2019 20:56 10,8 C 85 % 1007,9 hPa 0,0 l/m 0 min 0 min 0,000 mm 0,0 UV-I 0 W/m 8,4 C 10,8 C 8,0 km/h (2 Bft) 98 %
18.10.2019 20:54 10,9 C 85 % 1007,9 hPa 0,0 l/m 0 min 0 min 0,000 mm 0,0 UV-I 0 W/m 8,5 C 10,9 C 8,0 km/h (2 Bft) 98 %
18.10.2019 20:52 10,9 C 85 % 1007,9 hPa 0,0 l/m 0 min 0 min 0,000 mm 0,0 UV-I 0 W/m 8,5 C 10,9 C 9,7 km/h (2 Bft) 98 %
18.10.2019 20:50 10,9 C 85 % 1007,9 hPa 0,0 l/m 0 min 0 min 0,000 mm 0,0 UV-I 0 W/m 8,5 C 10,6 C 9,7 km/h (2 Bft) 98 %
18.10.2019 20:48 10,9 C 84 % 1007,9 hPa 0,0 l/m 0 min 0 min 0,000 mm 0,0 UV-I 0 W/m 8,3 C 10,9 C 12,9 km/h (3 Bft) 96 %
18.10.2019 20:46 10,9 C 84 % 1007,9 hPa 0,0 l/m 0 min 0 min 0,000 mm 0,0 UV-I 0 W/m 8,3 C 10,9 C 9,7 km/h (2 Bft) 100 %
18.10.2019 20:44 10,9 C 84 % 1007,9 hPa 0,0 l/m 0 min 0 min 0,000 mm 0,0 UV-I 0 W/m 8,3 C 10,1 C 11,3 km/h (2 Bft) 100 %
18.10.2019 20:42 10,9 C 84 % 1007,9 hPa 0,0 l/m 0 min 0 min 0,000 mm 0,0 UV-I 0 W/m 8,3 C 10,9 C 8,0 km/h (2 Bft) 100 %
18.10.2019 20:40 10,9 C 84 % 1007,9 hPa 0,0 l/m 0 min 0 min 0,000 mm 0,0 UV-I 0 W/m 8,3 C 10,9 C 11,3 km/h (2 Bft) 100 %
18.10.2019 20:38 10,9 C 84 % 1007,9 hPa 0,0 l/m 0 min 0 min 0,000 mm 0,0 UV-I 0 W/m 8,3 C 10,9 C 11,3 km/h (2 Bft) 100 %
18.10.2019 20:36 11,0 C 84 % 1008,0 hPa 0,0 l/m 0 min 0 min 0,000 mm 0,0 UV-I 0 W/m 8,4 C 11,0 C 9,7 km/h (2 Bft) 98 %
18.10.2019 20:34 11,0 C 84 % 1008,0 hPa 0,0 l/m 0 min 0 min 0,000 mm 0,0 UV-I 0 W/m 8,4 C 11,0 C 8,0 km/h (2 Bft) 98 %
18.10.2019 20:32 11,1 C 84 % 1008,1 hPa 0,0 l/m 0 min 0 min 0,000 mm 0,0 UV-I 0 W/m 8,5 C 10,7 C 9,7 km/h (2 Bft) 100 %
18.10.2019 20:30 11,1 C 84 % 1008,0 hPa 0,0 l/m 0 min 0 min 0,000 mm 0,0 UV-I 0 W/m 8,5 C 11,1 C 8,0 km/h (2 Bft) 98 %
18.10.2019 20:28 11,1 C 84 % 1008,1 hPa 0,0 l/m 0 min 0 min 0,000 mm 0,0 UV-I 0 W/m 8,5 C 10,9 C 9,7 km/h (2 Bft) 100 %
18.10.2019 20:26 11,1 C 84 % 1008,0 hPa 0,0 l/m 0 min 0 min 0,000 mm 0,0 UV-I 0 W/m 8,5 C 11,1 C 8,0 km/h (2 Bft) 100 %
18.10.2019 20:24 11,1 C 84 % 1008,0 hPa 0,0 l/m 0 min 0 min 0,000 mm 0,0 UV-I 0 W/m 8,5 C 11,1 C 6,4 km/h (2 Bft) 100 %
18.10.2019 20:22 11,1 C 84 % 1008,0 hPa 0,0 l/m 0 min 0 min 0,000 mm 0,0 UV-I 0 W/m 8,5 C 11,1 C 6,4 km/h (2 Bft) 100 %
18.10.2019 20:20 11,1 C 84 % 1008,1 hPa 0,0 l/m 0 min 0 min 0,000 mm 0,0 UV-I 0 W/m 8,5 C 11,1 C 6,4 km/h (2 Bft) 100 %
18.10.2019 20:18 11,1 C 84 % 1007,9 hPa 0,0 l/m 0 min 0 min 0,000 mm 0,0 UV-I 0 W/m 8,5 C 10,7 C 11,3 km/h (2 Bft) 100 %
18.10.2019 20:16 11,1 C 84 % 1007,9 hPa 0,0 l/m 0 min 0 min 0,000 mm 0,0 UV-I 0 W/m 8,5 C 10,8 C 12,9 km/h (3 Bft) 98 %
18.10.2019 20:14 11,1 C 84 % 1007,9 hPa 0,0 l/m 0 min 0 min 0,000 mm 0,0 UV-I 0 W/m 8,5 C 10,1 C 11,3 km/h (2 Bft) 98 %
18.10.2019 20:12 11,0 C 84 % 1008,0 hPa 0,0 l/m 0 min 0 min 0,000 mm 0,0 UV-I 0 W/m 8,4 C 10,7 C 11,3 km/h (2 Bft) 98 %
18.10.2019 20:10 10,9 C 84 % 1008,0 hPa 0,0 l/m 0 min 0 min 0,000 mm 0,0 UV-I 0 W/m 8,3 C 10,9 C 8,0 km/h (2 Bft) 100 %
18.10.2019 20:08 10,9 C 84 % 1008,0 hPa 0,0 l/m 0 min 0 min 0,000 mm 0,0 UV-I 0 W/m 8,3 C 10,9 C 11,3 km/h (2 Bft) 98 %
18.10.2019 20:06 10,9 C 84 % 1008,1 hPa 0,0 l/m 0 min 0 min 0,000 mm 0,0 UV-I 0 W/m 8,3 C 10,9 C 11,3 km/h (2 Bft) 100 %
18.10.2019 20:04 10,9 C 84 % 1008,1 hPa 0,0 l/m 0 min 0 min 0,026 mm 0,0 UV-I 0 W/m 8,3 C 10,9 C 12,9 km/h (3 Bft) 97 %
18.10.2019 20:00 10,9 C 84 % 1008,1 hPa 0,0 l/m 0 min 0 min 0,000 mm 0,0 UV-I 0 W/m 8,3 C 10,9 C 8,0 km/h (2 Bft) 100 %
18.10.2019 19:58 10,9 C 84 % 1008,1 hPa 0,0 l/m 0 min 0 min 0,000 mm 0,0 UV-I 0 W/m 8,3 C 10,2 C 12,9 km/h (3 Bft) 100 %
18.10.2019 19:56 10,8 C 84 % 1008,1 hPa 0,0 l/m 0 min 0 min 0,000 mm 0,0 UV-I 0 W/m 8,2 C 9,1 C 14,5 km/h (3 Bft) 96 %
18.10.2019 19:54 10,8 C 83 % 1008,1 hPa 0,0 l/m 0 min 0 min 0,000 mm 0,0 UV-I 0 W/m 8,0 C 9,3 C 16,1 km/h (3 Bft) 96 %
18.10.2019 19:52 10,8 C 83 % 1008,0 hPa 0,0 l/m 0 min 0 min 0,000 mm 0,0 UV-I 0 W/m 8,0 C 10,8 C 8,0 km/h (2 Bft) 100 %
18.10.2019 19:50 10,8 C 83 % 1008,0 hPa 0,0 l/m 0 min 0 min 0,000 mm 0,0 UV-I 0 W/m 8,0 C 10,8 C 8,0 km/h (2 Bft) 100 %
18.10.2019 19:48 10,8 C 83 % 1008,0 hPa 0,0 l/m 0 min 0 min 0,000 mm 0,0 UV-I 0 W/m 8,0 C 10,8 C 8,0 km/h (2 Bft) 96 %
18.10.2019 19:46 10,8 C 82 % 1008,0 hPa 0,0 l/m 0 min 0 min 0,000 mm 0,0 UV-I 0 W/m 7,9 C 10,8 C 6,4 km/h (2 Bft) 98 %
18.10.2019 19:44 10,9 C 82 % 1008,0 hPa 0,0 l/m 0 min 0 min 0,000 mm 0,0 UV-I 0 W/m 7,9 C 10,9 C 8,0 km/h (2 Bft) 89 %
18.10.2019 19:42 10,9 C 82 % 1008,0 hPa 0,0 l/m 0 min 0 min 0,000 mm 0,0 UV-I 0 W/m 7,9 C 10,9 C 4,8 km/h (1 Bft) 96 %
18.10.2019 19:40 11,0 C 82 % 1008,0 hPa 0,0 l/m 0 min 0 min 0,000 mm 0,0 UV-I 0 W/m 8,0 C 11,0 C 6,4 km/h (2 Bft) 96 %
18.10.2019 19:38 11,1 C 82 % 1008,0 hPa 0,0 l/m 0 min 0 min 0,000 mm 0,0 UV-I 0 W/m 8,1 C 11,1 C 3,2 km/h (1 Bft) 96 %
18.10.2019 19:36 11,2 C 82 % 1008,0 hPa 0,0 l/m 0 min 0 min 0,000 mm 0,0 UV-I 0 W/m 8,2 C 11,2 C 3,2 km/h (1 Bft) 91 %
18.10.2019 19:34 11,2 C 81 % 1007,9 hPa 0,0 l/m 0 min 0 min 0,000 mm 0,0 UV-I 0 W/m 8,1 C 11,2 C 4,8 km/h (1 Bft) 96 %
18.10.2019 19:32 11,2 C 81 % 1008,0 hPa 0,0 l/m 0 min 0 min 0,000 mm 0,0 UV-I 0 W/m 8,1 C 11,2 C 3,2 km/h (1 Bft) 96 %
18.10.2019 19:30 11,3 C 81 % 1008,0 hPa 0,0 l/m 0 min 0 min 0,000 mm 0,0 UV-I 0 W/m 8,2 C 11,3 C 4,8 km/h (1 Bft) 94 %
18.10.2019 19:28 11,3 C 81 % 1008,0 hPa 0,0 l/m 0 min 0 min 0,000 mm 0,0 UV-I 0 W/m 8,2 C 11,3 C 4,8 km/h (1 Bft) 94 %
18.10.2019 19:26 11,3 C 81 % 1008,0 hPa 0,0 l/m 0 min 0 min 0,000 mm 0,0 UV-I 0 W/m 8,2 C 11,3 C 3,2 km/h (1 Bft) 96 %
18.10.2019 19:24 11,4 C 81 % 1008,0 hPa 0,0 l/m 0 min 0 min 0,000 mm 0,0 UV-I 0 W/m 8,3 C 11,4 C 3,2 km/h (1 Bft) 94 %
18.10.2019 19:22 11,4 C 81 % 1007,9 hPa 0,0 l/m 0 min 0 min 0,000 mm 0,0 UV-I 0 W/m 8,3 C 11,4 C 1,6 km/h (1 Bft) 96 %
18.10.2019 19:20 11,5 C 81 % 1007,8 hPa 0,0 l/m 0 min 0 min 0,000 mm 0,0 UV-I 0 W/m 8,4 C 11,5 C 3,2 km/h (1 Bft) 96 %
18.10.2019 19:18 11,6 C 81 % 1007,9 hPa 0,0 l/m 0 min 0 min 0,000 mm 0,0 UV-I 0 W/m 8,5 C 11,6 C 4,8 km/h (1 Bft) 96 %
18.10.2019 19:16 11,6 C 81 % 1007,9 hPa 0,0 l/m 0 min 0 min 0,000 mm 0,0 UV-I 0 W/m 8,5 C 11,6 C 8,0 km/h (2 Bft) 98 %
18.10.2019 19:14 11,7 C 80 % 1007,9 hPa 0,0 l/m 0 min 0 min 0,000 mm 0,0 UV-I 0 W/m 8,4 C 11,7 C 3,2 km/h (1 Bft) 96 %
18.10.2019 19:12 11,7 C 81 % 1007,8 hPa 0,0 l/m 0 min 0 min 0,000 mm 0,0 UV-I 0 W/m 8,5 C 11,7 C 4,8 km/h (1 Bft) 98 %
18.10.2019 19:10 11,7 C 80 % 1007,8 hPa 0,0 l/m 0 min 0 min 0,000 mm 0,0 UV-I 0 W/m 8,4 C 11,7 C 4,8 km/h (1 Bft) 100 %
18.10.2019 19:08 11,8 C 80 % 1007,8 hPa 0,0 l/m 0 min 0 min 0,000 mm 0,0 UV-I 0 W/m 8,5 C 11,8 C 8,0 km/h (2 Bft) 100 %
18.10.2019 19:06 11,8 C 80 % 1007,7 hPa 0,0 l/m 0 min 0 min 0,000 mm 0,0 UV-I 0 W/m 8,5 C 11,8 C 4,8 km/h (1 Bft) 98 %
18.10.2019 19:04 11,8 C 80 % 1007,7 hPa 0,0 l/m 0 min 0 min 0,025 mm 0,0 UV-I 0 W/m 8,5 C 11,8 C 4,8 km/h (1 Bft) 99 %
18.10.2019 19:00 11,8 C 80 % 1007,6 hPa 0,0 l/m 0 min 0 min 0,000 mm 0,0 UV-I 0 W/m 8,5 C 11,8 C 6,4 km/h (2 Bft) 100 %
18.10.2019 18:58 11,9 C 80 % 1007,6 hPa 0,0 l/m 0 min 0 min 0,000 mm 0,0 UV-I 0 W/m 8,6 C 11,6 C 11,3 km/h (2 Bft) 100 %
18.10.2019 18:56 11,9 C 80 % 1007,6 hPa 0,0 l/m 0 min 0 min 0,000 mm 0,0 UV-I 0 W/m 8,6 C 11,9 C 9,7 km/h (2 Bft) 100 %
18.10.2019 18:54 11,9 C 80 % 1007,5 hPa 0,0 l/m 0 min 0 min 0,000 mm 0,0 UV-I 0 W/m 8,6 C 11,9 C 9,7 km/h (2 Bft) 100 %
18.10.2019 18:52 12,0 C 79 % 1007,5 hPa 0,0 l/m 0 min 0 min 0,000 mm 0,0 UV-I 0 W/m 8,5 C 12,0 C 8,0 km/h (2 Bft) 98 %
18.10.2019 18:50 12,1 C 79 % 1007,5 hPa 0,0 l/m 0 min 0 min 0,000 mm 0,0 UV-I 0 W/m 8,6 C 12,1 C 8,0 km/h (2 Bft) 100 %
18.10.2019 18:48 12,1 C 79 % 1007,4 hPa 0,0 l/m 0 min 0 min 0,000 mm 0,0 UV-I 0 W/m 8,6 C 12,1 C 8,0 km/h (2 Bft) 96 %
18.10.2019 18:46 12,2 C 79 % 1007,4 hPa 0,0 l/m 0 min 0 min 0,000 mm 0,0 UV-I 0 W/m 8,7 C 12,2 C 9,7 km/h (2 Bft) 94 %
18.10.2019 18:44 12,2 C 79 % 1007,4 hPa 0,0 l/m 0 min 0 min 0,000 mm 0,0 UV-I 2 W/m 8,7 C 12,2 C 9,7 km/h (2 Bft) 100 %
18.10.2019 18:42 12,2 C 79 % 1007,3 hPa 0,0 l/m 0 min 0 min 0,000 mm 0,0 UV-I 3 W/m 8,7 C 12,2 C 8,0 km/h (2 Bft) 96 %
18.10.2019 18:40 12,3 C 78 % 1007,4 hPa 0,0 l/m 0 min 0 min 0,000 mm 0,0 UV-I 6 W/m 8,6 C 12,3 C 6,4 km/h (2 Bft) 100 %
18.10.2019 18:38 12,3 C 78 % 1007,3 hPa 0,0 l/m 0 min 0 min 0,000 mm 0,0 UV-I 6 W/m 8,6 C 12,3 C 6,4 km/h (2 Bft) 100 %
18.10.2019 18:36 12,4 C 78 % 1007,3 hPa 0,0 l/m 0 min 0 min 0,000 mm 0,0 UV-I 7 W/m 8,7 C 12,4 C 6,4 km/h (2 Bft) 100 %
18.10.2019 18:34 12,4 C 78 % 1007,3 hPa 0,0 l/m 0 min 0 min 0,000 mm 0,0 UV-I 9 W/m 8,7 C 12,4 C 11,3 km/h (2 Bft) 98 %
18.10.2019 18:32 12,5 C 78 % 1007,3 hPa 0,0 l/m 0 min 0 min 0,000 mm 0,0 UV-I 9 W/m 8,8 C 11,4 C 12,9 km/h (3 Bft) 100 %
18.10.2019 18:30 12,5 C 78 % 1007,3 hPa 0,0 l/m 0 min 0 min 0,000 mm 0,0 UV-I 11 W/m 8,8 C 11,2 C 16,1 km/h (3 Bft) 100 %
18.10.2019 18:28 12,6 C 77 % 1007,3 hPa 0,0 l/m 0 min 0 min 0,000 mm 0,0 UV-I 12 W/m 8,7 C 12,6 C 8,0 km/h (2 Bft) 100 %
18.10.2019 18:26 12,6 C 77 % 1007,3 hPa 0,0 l/m 0 min 0 min 0,000 mm 0,0 UV-I 13 W/m 8,7 C 12,6 C 6,4 km/h (2 Bft) 98 %
18.10.2019 18:24 12,7 C 77 % 1007,2 hPa 0,0 l/m 0 min 0 min 0,000 mm 0,0 UV-I 14 W/m 8,8 C 12,7 C 9,7 km/h (2 Bft) 97 %
18.10.2019 18:20 12,7 C 77 % 1007,2 hPa 0,0 l/m 0 min 0 min 0,000 mm 0,0 UV-I 15 W/m 8,8 C 12,7 C 8,0 km/h (2 Bft) 98 %
18.10.2019 18:18 12,8 C 77 % 1007,1 hPa 0,0 l/m 0 min 0 min 0,000 mm 0,0 UV-I 16 W/m 8,9 C 12,8 C 11,3 km/h (2 Bft) 94 %
18.10.2019 18:16 12,8 C 76 % 1007,1 hPa 0,0 l/m 0 min 0 min 0,000 mm 0,0 UV-I 18 W/m 8,7 C 12,8 C 11,3 km/h (2 Bft) 98 %
18.10.2019 18:14 12,8 C 76 % 1007,1 hPa 0,0 l/m 0 min 0 min 0,000 mm 0,0 UV-I 20 W/m 8,7 C 11,6 C 11,3 km/h (2 Bft) 98 %
18.10.2019 18:12 12,9 C 76 % 1007,1 hPa 0,0 l/m 0 min 0 min 0,000 mm 0,0 UV-I 21 W/m 8,8 C 12,2 C 11,3 km/h (2 Bft) 98 %
18.10.2019 18:10 12,9 C 76 % 1007,0 hPa 0,0 l/m 0 min 0 min 0,000 mm 0,0 UV-I 23 W/m 8,8 C 12,8 C 14,5 km/h (3 Bft) 98 %
18.10.2019 18:08 13,0 C 76 % 1007,1 hPa 0,0 l/m 0 min 0 min 0,000 mm 0,0 UV-I 25 W/m 8,9 C 13,0 C 6,4 km/h (2 Bft) 98 %
18.10.2019 18:06 13,0 C 76 % 1007,0 hPa 0,0 l/m 0 min 0 min 0,000 mm 0,0 UV-I 27 W/m 8,9 C 13,0 C 12,9 km/h (3 Bft) 96 %
18.10.2019 18:04 13,1 C 76 % 1007,0 hPa 0,0 l/m 0 min 0 min 0,076 mm 0,0 UV-I 28 W/m 9,0 C 11,7 C 17,7 km/h (3 Bft) 94 %
18.10.2019 18:00 13,1 C 76 % 1007,0 hPa 0,0 l/m 0 min 0 min 0,000 mm 0,0 UV-I 29 W/m 9,0 C 12,9 C 11,3 km/h (2 Bft) 94 %
18.10.2019 17:58 13,2 C 75 % 1006,9 hPa 0,0 l/m 0 min 0 min 0,000 mm 0,0 UV-I 31 W/m 8,9 C 10,5 C 20,9 km/h (4 Bft) 96 %
18.10.2019 17:56 13,2 C 75 % 1006,8 hPa 0,0 l/m 0 min 0 min 0,000 mm 0,4 UV-I 48 W/m 8,9 C 12,2 C 16,1 km/h (3 Bft) 94 %
18.10.2019 17:54 13,3 C 75 % 1006,9 hPa 0,0 l/m 0 min 0 min 0,000 mm 0,6 UV-I 57 W/m 9,0 C 12,9 C 11,3 km/h (2 Bft) 98 %
18.10.2019 17:52 13,3 C 75 % 1006,9 hPa 0,0 l/m 2 min 0 min 0,000 mm 0,7 UV-I 61 W/m 9,0 C 13,3 C 9,7 km/h (2 Bft) 98 %
18.10.2019 17:50 13,3 C 75 % 1006,8 hPa 0,0 l/m 2 min 0 min 0,000 mm 0,7 UV-I 65 W/m 9,0 C 13,3 C 9,7 km/h (2 Bft) 96 %
18.10.2019 17:48 13,4 C 74 % 1006,8 hPa 0,0 l/m 2 min 0 min 0,000 mm 0,7 UV-I 69 W/m 8,9 C 13,4 C 11,3 km/h (2 Bft) 96 %
18.10.2019 17:46 13,4 C 74 % 1006,8 hPa 0,0 l/m 2 min 0 min 0,000 mm 0,7 UV-I 74 W/m 8,9 C 11,3 C 17,7 km/h (3 Bft) 96 %
18.10.2019 17:44 13,4 C 74 % 1006,8 hPa 0,0 l/m 2 min 0 min 0,000 mm 0,7 UV-I 79 W/m 8,9 C 13,4 C 9,7 km/h (2 Bft) 94 %
18.10.2019 17:42 13,5 C 74 % 1006,8 hPa 0,0 l/m 2 min 0 min 0,000 mm 0,7 UV-I 83 W/m 9,0 C 13,3 C 12,9 km/h (3 Bft) 96 %
18.10.2019 17:40 13,5 C 74 % 1006,7 hPa 0,0 l/m 2 min 0 min 0,000 mm 0,7 UV-I 88 W/m 9,0 C 13,5 C 11,3 km/h (2 Bft) 93 %
18.10.2019 17:38 13,6 C 74 % 1006,7 hPa 0,0 l/m 2 min 0 min 0,000 mm 0,7 UV-I 93 W/m 9,1 C 13,4 C 9,7 km/h (2 Bft) 96 %
18.10.2019 17:36 13,6 C 74 % 1006,7 hPa 0,0 l/m 2 min 0 min 0,000 mm 0,7 UV-I 99 W/m 9,1 C 12,7 C 17,7 km/h (3 Bft) 94 %
18.10.2019 17:34 13,6 C 74 % 1006,6 hPa 0,0 l/m 2 min 0 min 0,000 mm 0,7 UV-I 105 W/m 9,1 C 10,5 C 20,9 km/h (4 Bft) 96 %
18.10.2019 17:32 13,7 C 74 % 1006,6 hPa 0,0 l/m 2 min 0 min 0,000 mm 0,8 UV-I 109 W/m 9,2 C 12,4 C 14,5 km/h (3 Bft) 96 %
18.10.2019 17:30 13,7 C 74 % 1006,6 hPa 0,0 l/m 2 min 0 min 0,000 mm 0,8 UV-I 114 W/m 9,2 C 13,7 C 14,5 km/h (3 Bft) 94 %
18.10.2019 17:28 13,7 C 73 % 1006,5 hPa 0,0 l/m 2 min 0 min 0,000 mm 0,8 UV-I 121 W/m 8,9 C 10,0 C 27,4 km/h (4 Bft) 96 %
18.10.2019 17:26 13,7 C 73 % 1006,6 hPa 0,0 l/m 2 min 0 min 0,000 mm 0,8 UV-I 125 W/m 8,9 C 10,4 C 20,9 km/h (4 Bft) 96 %
18.10.2019 17:24 13,8 C 73 % 1006,5 hPa 0,0 l/m 2 min 0 min 0,000 mm 0,8 UV-I 132 W/m 9,0 C 11,4 C 16,1 km/h (3 Bft) 96 %
18.10.2019 17:22 13,8 C 73 % 1006,5 hPa 0,0 l/m 2 min 0 min 0,000 mm 0,8 UV-I 137 W/m 9,0 C 12,6 C 17,7 km/h (3 Bft) 94 %
18.10.2019 17:20 13,8 C 73 % 1006,4 hPa 0,0 l/m 2 min 0 min 0,000 mm 0,8 UV-I 138 W/m 9,0 C 10,6 C 17,7 km/h (3 Bft) 96 %
18.10.2019 17:18 13,8 C 73 % 1006,4 hPa 0,0 l/m 2 min 0 min 0,000 mm 0,8 UV-I 149 W/m 9,0 C 12,0 C 22,5 km/h (4 Bft) 94 %
18.10.2019 17:16 13,8 C 73 % 1006,4 hPa 0,0 l/m 2 min 0 min 0,000 mm 0,9 UV-I 154 W/m 9,0 C 11,8 C 17,7 km/h (3 Bft) 98 %
18.10.2019 17:14 13,8 C 73 % 1006,4 hPa 0,0 l/m 2 min 0 min 0,000 mm 0,9 UV-I 160 W/m 9,0 C 12,5 C 22,5 km/h (4 Bft) 94 %
18.10.2019 17:12 13,9 C 73 % 1006,4 hPa 0,0 l/m 2 min 0 min 0,000 mm 0,9 UV-I 165 W/m 9,1 C 11,3 C 20,9 km/h (4 Bft) 94 %
18.10.2019 17:10 13,9 C 73 % 1006,3 hPa 0,0 l/m 2 min 0 min 0,000 mm 0,9 UV-I 156 W/m 9,1 C 13,4 C 17,7 km/h (3 Bft) 96 %
18.10.2019 17:08 13,9 C 73 % 1006,3 hPa 0,0 l/m 0 min 0 min 0,000 mm 0,9 UV-I 119 W/m 9,1 C 12,0 C 20,9 km/h (4 Bft) 96 %
18.10.2019 17:06 13,9 C 73 % 1006,3 hPa 0,0 l/m 0 min 0 min 0,000 mm 0,9 UV-I 107 W/m 9,1 C 13,2 C 22,5 km/h (4 Bft) 98 %
18.10.2019 17:04 13,9 C 73 % 1006,3 hPa 0,0 l/m 0 min 0 min 0,178 mm 0,9 UV-I 78 W/m 9,1 C 11,6 C 19,3 km/h (3 Bft) 97 %
18.10.2019 17:00 13,9 C 73 % 1006,2 hPa 0,0 l/m 2 min 0 min 0,000 mm 1,0 UV-I 199 W/m 9,1 C 10,7 C 22,5 km/h (4 Bft) 96 %
18.10.2019 16:58 13,9 C 73 % 1006,2 hPa 0,0 l/m 2 min 0 min 0,000 mm 1,0 UV-I 204 W/m 9,1 C 10,1 C 25,7 km/h (4 Bft) 96 %
18.10.2019 16:56 13,9 C 74 % 1006,2 hPa 0,0 l/m 2 min 0 min 0,000 mm 1,0 UV-I 210 W/m 9,3 C 12,4 C 19,3 km/h (3 Bft) 96 %
18.10.2019 16:54 14,0 C 73 % 1006,2 hPa 0,0 l/m 2 min 0 min 0,000 mm 1,0 UV-I 216 W/m 9,2 C 10,4 C 27,4 km/h (4 Bft) 96 %
18.10.2019 16:52 14,1 C 74 % 1006,2 hPa 0,0 l/m 2 min 0 min 0,000 mm 1,0 UV-I 222 W/m 9,5 C 11,6 C 24,1 km/h (4 Bft) 94 %
18.10.2019 16:50 14,1 C 74 % 1006,2 hPa 0,0 l/m 2 min 0 min 0,000 mm 1,1 UV-I 226 W/m 9,5 C 12,3 C 17,7 km/h (3 Bft) 94 %
18.10.2019 16:48 14,1 C 73 % 1006,1 hPa 0,0 l/m 2 min 0 min 0,000 mm 1,1 UV-I 231 W/m 9,3 C 12,2 C 20,9 km/h (4 Bft) 93 %
18.10.2019 16:46 14,1 C 74 % 1006,1 hPa 0,0 l/m 2 min 0 min 0,000 mm 1,1 UV-I 235 W/m 9,5 C 11,2 C 22,5 km/h (4 Bft) 94 %
18.10.2019 16:44 14,1 C 74 % 1006,1 hPa 0,0 l/m 2 min 0 min 0,000 mm 1,1 UV-I 239 W/m 9,5 C 11,8 C 24,1 km/h (4 Bft) 96 %
18.10.2019 16:42 14,2 C 74 % 1006,1 hPa 0,0 l/m 2 min 0 min 0,000 mm 1,1 UV-I 245 W/m 9,6 C 12,0 C 17,7 km/h (3 Bft) 96 %
18.10.2019 16:40 14,1 C 74 % 1006,1 hPa 0,0 l/m 2 min 0 min 0,000 mm 1,1 UV-I 250 W/m 9,5 C 10,7 C 22,5 km/h (4 Bft) 89 %
18.10.2019 16:38 14,1 C 75 % 1006,0 hPa 0,0 l/m 2 min 0 min 0,000 mm 1,2 UV-I 253 W/m 9,7 C 11,3 C 22,5 km/h (4 Bft) 96 %
18.10.2019 16:36 14,1 C 74 % 1006,1 hPa 0,0 l/m 2 min 0 min 0,000 mm 1,2 UV-I 258 W/m 9,5 C 12,2 C 19,3 km/h (3 Bft) 96 %
18.10.2019 16:34 14,1 C 74 % 1006,1 hPa 0,0 l/m 2 min 0 min 0,000 mm 1,2 UV-I 262 W/m 9,5 C 10,5 C 22,5 km/h (4 Bft) 96 %
18.10.2019 16:32 14,1 C 74 % 1006,1 hPa 0,0 l/m 2 min 0 min 0,000 mm 1,2 UV-I 267 W/m 9,5 C 10,3 C 40,2 km/h (6 Bft) 98 %
18.10.2019 16:30 14,1 C 75 % 1006,1 hPa 0,0 l/m 2 min 0 min 0,000 mm 1,2 UV-I 271 W/m 9,7 C 10,1 C 32,2 km/h (5 Bft) 94 %
18.10.2019 16:28 14,1 C 75 % 1006,0 hPa 0,0 l/m 2 min 0 min 0,000 mm 1,3 UV-I 275 W/m 9,7 C 12,9 C 17,7 km/h (3 Bft) 91 %
18.10.2019 16:26 14,1 C 75 % 1006,0 hPa 0,0 l/m 2 min 0 min 0,000 mm 1,3 UV-I 278 W/m 9,7 C 9,6 C 25,7 km/h (4 Bft) 98 %
18.10.2019 16:24 14,1 C 75 % 1006,0 hPa 0,0 l/m 2 min 0 min 0,000 mm 1,3 UV-I 282 W/m 9,7 C 11,3 C 20,9 km/h (4 Bft) 98 %
18.10.2019 16:22 14,1 C 75 % 1005,9 hPa 0,0 l/m 2 min 0 min 0,000 mm 1,3 UV-I 285 W/m 9,7 C 9,6 C 30,6 km/h (5 Bft) 96 %
18.10.2019 16:20 14,1 C 76 % 1006,0 hPa 0,0 l/m 2 min 0 min 0,000 mm 1,3 UV-I 290 W/m 9,9 C 11,4 C 24,1 km/h (4 Bft) 96 %
18.10.2019 16:18 14,1 C 76 % 1005,9 hPa 0,0 l/m 2 min 0 min 0,000 mm 1,3 UV-I 291 W/m 9,9 C 11,7 C 20,9 km/h (4 Bft) 98 %
18.10.2019 16:16 14,1 C 76 % 1005,9 hPa 0,0 l/m 2 min 0 min 0,000 mm 1,3 UV-I 295 W/m 9,9 C 10,5 C 19,3 km/h (3 Bft) 98 %
18.10.2019 16:14 14,2 C 76 % 1005,9 hPa 0,0 l/m 2 min 0 min 0,000 mm 1,4 UV-I 299 W/m 10,0 C 11,6 C 24,1 km/h (4 Bft) 98 %
18.10.2019 16:12 14,2 C 76 % 1005,9 hPa 0,0 l/m 2 min 0 min 0,000 mm 1,4 UV-I 304 W/m 10,0 C 11,5 C 24,1 km/h (4 Bft) 98 %
18.10.2019 16:10 14,2 C 77 % 1006,0 hPa 0,0 l/m 2 min 0 min 0,000 mm 1,4 UV-I 311 W/m 10,2 C 11,3 C 27,4 km/h (4 Bft) 98 %
18.10.2019 16:08 14,3 C 77 % 1005,9 hPa 0,0 l/m 2 min 0 min 0,000 mm 1,4 UV-I 313 W/m 10,3 C 12,9 C 17,7 km/h (3 Bft) 98 %
18.10.2019 16:06 14,3 C 77 % 1005,9 hPa 0,0 l/m 2 min 0 min 0,000 mm 1,4 UV-I 316 W/m 10,3 C 12,2 C 19,3 km/h (3 Bft) 98 %
18.10.2019 16:04 14,3 C 77 % 1005,8 hPa 0,0 l/m 2 min 0 min 0,229 mm 1,5 UV-I 324 W/m 10,3 C 12,3 C 25,7 km/h (4 Bft) 96 %
18.10.2019 16:00 14,2 C 77 % 1005,8 hPa 0,0 l/m 2 min 0 min 0,000 mm 1,5 UV-I 330 W/m 10,2 C 11,6 C 22,5 km/h (4 Bft) 98 %
18.10.2019 15:58 14,2 C 76 % 1005,8 hPa 0,0 l/m 2 min 0 min 0,000 mm 1,5 UV-I 335 W/m 10,0 C 9,7 C 29,0 km/h (5 Bft) 98 %
18.10.2019 15:56 14,2 C 76 % 1005,8 hPa 0,0 l/m 2 min 0 min 0,000 mm 1,5 UV-I 340 W/m 10,0 C 10,5 C 29,0 km/h (5 Bft) 96 %
18.10.2019 15:54 14,2 C 77 % 1005,7 hPa 0,0 l/m 2 min 0 min 0,000 mm 1,6 UV-I 343 W/m 10,2 C 10,0 C 27,4 km/h (4 Bft) 98 %
18.10.2019 15:52 14,2 C 76 % 1005,7 hPa 0,0 l/m 2 min 0 min 0,000 mm 1,6 UV-I 328 W/m 10,0 C 13,6 C 14,5 km/h (3 Bft) 96 %
18.10.2019 15:50 14,2 C 77 % 1005,7 hPa 0,0 l/m 2 min 0 min 0,000 mm 1,6 UV-I 348 W/m 10,2 C 10,3 C 25,7 km/h (4 Bft) 98 %
18.10.2019 15:48 14,1 C 76 % 1005,7 hPa 0,0 l/m 2 min 0 min 0,000 mm 1,6 UV-I 353 W/m 9,9 C 9,9 C 22,5 km/h (4 Bft) 96 %
18.10.2019 15:46 14,2 C 76 % 1005,7 hPa 0,0 l/m 2 min 0 min 0,000 mm 1,6 UV-I 355 W/m 10,0 C 10,5 C 24,1 km/h (4 Bft) 98 %
18.10.2019 15:44 14,2 C 77 % 1005,5 hPa 0,0 l/m 2 min 0 min 0,000 mm 1,7 UV-I 359 W/m 10,2 C 11,0 C 24,1 km/h (4 Bft) 96 %
18.10.2019 15:42 14,1 C 77 % 1005,6 hPa 0,0 l/m 2 min 0 min 0,000 mm 1,7 UV-I 364 W/m 10,1 C 9,6 C 37,0 km/h (5 Bft) 94 %
18.10.2019 15:40 14,1 C 77 % 1005,7 hPa 0,0 l/m 2 min 0 min 0,000 mm 1,7 UV-I 367 W/m 10,1 C 11,0 C 24,1 km/h (4 Bft) 96 %
18.10.2019 15:38 14,1 C 76 % 1005,5 hPa 0,0 l/m 2 min 0 min 0,000 mm 1,7 UV-I 369 W/m 9,9 C 10,8 C 25,7 km/h (4 Bft) 96 %
18.10.2019 15:36 14,1 C 77 % 1005,6 hPa 0,0 l/m 2 min 0 min 0,000 mm 1,7 UV-I 371 W/m 10,1 C 10,4 C 29,0 km/h (5 Bft) 98 %
18.10.2019 15:34 14,1 C 76 % 1005,5 hPa 0,0 l/m 2 min 0 min 0,000 mm 1,8 UV-I 374 W/m 9,9 C 11,0 C 25,7 km/h (4 Bft) 96 %
18.10.2019 15:32 14,1 C 77 % 1005,5 hPa 0,0 l/m 2 min 0 min 0,000 mm 1,8 UV-I 378 W/m 10,1 C 9,8 C 29,0 km/h (5 Bft) 94 %
18.10.2019 15:30 14,1 C 77 % 1005,4 hPa 0,0 l/m 2 min 0 min 0,000 mm 1,8 UV-I 380 W/m 10,1 C 9,3 C 27,4 km/h (4 Bft) 94 %
18.10.2019 15:28 14,1 C 77 % 1005,3 hPa 0,0 l/m 2 min 0 min 0,000 mm 1,8 UV-I 383 W/m 10,1 C 11,4 C 30,6 km/h (5 Bft) 96 %
18.10.2019 15:26 13,9 C 77 % 1005,4 hPa 0,0 l/m 2 min 0 min 0,000 mm 1,8 UV-I 386 W/m 9,9 C 9,5 C 30,6 km/h (5 Bft) 94 %
18.10.2019 15:24 13,9 C 77 % 1005,5 hPa 0,0 l/m 2 min 0 min 0,000 mm 1,9 UV-I 389 W/m 9,9 C 11,5 C 25,7 km/h (4 Bft) 98 %
18.10.2019 15:22 13,9 C 77 % 1005,2 hPa 0,0 l/m 2 min 0 min 0,000 mm 1,9 UV-I 393 W/m 9,9 C 9,5 C 29,0 km/h (5 Bft) 98 %
18.10.2019 15:20 13,8 C 77 % 1005,3 hPa 0,0 l/m 2 min 0 min 0,000 mm 1,9 UV-I 395 W/m 9,8 C 8,7 C 40,2 km/h (6 Bft) 96 %
18.10.2019 15:18 13,8 C 78 % 1005,2 hPa 0,0 l/m 2 min 0 min 0,000 mm 1,9 UV-I 398 W/m 10,0 C 11,0 C 25,7 km/h (4 Bft) 98 %
18.10.2019 15:16 13,8 C 78 % 1005,2 hPa 0,0 l/m 2 min 0 min 0,000 mm 1,9 UV-I 400 W/m 10,0 C 10,7 C 27,4 km/h (4 Bft) 98 %
18.10.2019 15:14 13,8 C 77 % 1005,2 hPa 0,0 l/m 2 min 0 min 0,000 mm 1,9 UV-I 404 W/m 9,8 C 9,0 C 35,4 km/h (5 Bft) 96 %
18.10.2019 15:12 13,8 C 77 % 1005,2 hPa 0,0 l/m 2 min 0 min 0,000 mm 2,0 UV-I 407 W/m 9,8 C 9,5 C 32,2 km/h (5 Bft) 96 %
18.10.2019 15:10 13,8 C 78 % 1005,0 hPa 0,0 l/m 2 min 0 min 0,000 mm 2,0 UV-I 410 W/m 10,0 C 9,9 C 29,0 km/h (5 Bft) 98 %
18.10.2019 15:08 13,8 C 79 % 1005,2 hPa 0,0 l/m 2 min 0 min 0,000 mm 2,0 UV-I 412 W/m 10,2 C 10,8 C 22,5 km/h (4 Bft) 100 %
18.10.2019 15:06 13,8 C 78 % 1005,0 hPa 0,0 l/m 2 min 0 min 0,000 mm 2,0 UV-I 415 W/m 10,0 C 9,0 C 30,6 km/h (5 Bft) 94 %
18.10.2019 15:04 13,7 C 78 % 1005,1 hPa 0,0 l/m 2 min 0 min 0,203 mm 2,1 UV-I 423 W/m 9,9 C 9,0 C 37,0 km/h (5 Bft) 100 %
18.10.2019 15:00 13,7 C 79 % 1005,0 hPa 0,0 l/m 2 min 0 min 0,000 mm 2,1 UV-I 431 W/m 10,1 C 10,3 C 30,6 km/h (5 Bft) 100 %
18.10.2019 14:58 13,7 C 79 % 1005,1 hPa 0,0 l/m 2 min 0 min 0,000 mm 2,0 UV-I 445 W/m 10,1 C 10,9 C 20,9 km/h (4 Bft) 100 %
18.10.2019 14:56 13,6 C 79 % 1005,2 hPa 0,0 l/m 2 min 0 min 0,000 mm 2,1 UV-I 450 W/m 10,0 C 11,8 C 17,7 km/h (3 Bft) 100 %
18.10.2019 14:54 13,5 C 78 % 1005,1 hPa 0,0 l/m 2 min 0 min 0,000 mm 2,2 UV-I 440 W/m 9,7 C 8,6 C 27,4 km/h (4 Bft) 98 %
18.10.2019 14:52 13,4 C 79 % 1005,2 hPa 0,0 l/m 2 min 0 min 0,000 mm 2,2 UV-I 439 W/m 9,8 C 9,5 C 22,5 km/h (4 Bft) 100 %
18.10.2019 14:50 13,4 C 79 % 1005,2 hPa 0,0 l/m 2 min 0 min 0,000 mm 2,2 UV-I 438 W/m 9,8 C 8,2 C 29,0 km/h (5 Bft) 98 %
18.10.2019 14:48 13,3 C 79 % 1005,1 hPa 0,0 l/m 2 min 0 min 0,000 mm 2,2 UV-I 441 W/m 9,7 C 10,0 C 30,6 km/h (5 Bft) 100 %
18.10.2019 14:46 13,2 C 78 % 1005,0 hPa 0,0 l/m 2 min 0 min 0,000 mm 2,2 UV-I 446 W/m 9,4 C 7,5 C 32,2 km/h (5 Bft) 94 %
18.10.2019 14:44 13,2 C 78 % 1005,1 hPa 0,0 l/m 2 min 0 min 0,000 mm 2,2 UV-I 286 W/m 9,4 C 6,7 C 37,0 km/h (5 Bft) 100 %
18.10.2019 14:42 13,1 C 78 % 1005,1 hPa 0,0 l/m 2 min 0 min 0,000 mm 2,2 UV-I 292 W/m 9,4 C 8,6 C 35,4 km/h (5 Bft) 100 %
18.10.2019 14:40 13,0 C 79 % 1005,2 hPa 0,0 l/m 0 min 0 min 0,000 mm 2,1 UV-I 266 W/m 9,4 C 8,3 C 30,6 km/h (5 Bft) 98 %
18.10.2019 14:38 13,0 C 79 % 1005,1 hPa 0,0 l/m 0 min 0 min 0,000 mm 2,1 UV-I 249 W/m 9,4 C 10,2 C 25,7 km/h (4 Bft) 100 %
18.10.2019 14:36 12,9 C 79 % 1005,2 hPa 0,0 l/m 2 min 0 min 0,000 mm 2,1 UV-I 402 W/m 9,3 C 7,6 C 30,6 km/h (5 Bft) 98 %
18.10.2019 14:34 12,9 C 80 % 1005,2 hPa 0,0 l/m 2 min 0 min 0,000 mm 2,2 UV-I 512 W/m 9,5 C 9,1 C 22,5 km/h (4 Bft) 100 %
18.10.2019 14:32 12,8 C 79 % 1005,2 hPa 0,0 l/m 2 min 0 min 0,000 mm 2,4 UV-I 341 W/m 9,2 C 7,8 C 33,8 km/h (5 Bft) 100 %
18.10.2019 14:30 12,8 C 79 % 1005,3 hPa 0,0 l/m 0 min 0 min 0,000 mm 2,0 UV-I 179 W/m 9,2 C 7,7 C 32,2 km/h (5 Bft) 100 %
18.10.2019 14:28 12,9 C 80 % 1005,4 hPa 0,0 l/m 0 min 0 min 0,000 mm 1,8 UV-I 206 W/m 9,5 C 7,2 C 35,4 km/h (5 Bft) 96 %
18.10.2019 14:26 12,9 C 79 % 1005,4 hPa 0,0 l/m 0 min 0 min 0,000 mm 1,7 UV-I 166 W/m 9,3 C 11,2 C 17,7 km/h (3 Bft) 98 %
18.10.2019 14:24 13,0 C 79 % 1005,3 hPa 0,0 l/m 0 min 0 min 0,000 mm 1,8 UV-I 169 W/m 9,4 C 8,7 C 22,5 km/h (4 Bft) 100 %
18.10.2019 14:22 13,1 C 78 % 1005,3 hPa 0,0 l/m 0 min 0 min 0,000 mm 1,6 UV-I 146 W/m 9,4 C 7,8 C 38,6 km/h (5 Bft) 100 %
18.10.2019 14:20 13,2 C 78 % 1005,3 hPa 0,0 l/m 0 min 0 min 0,000 mm 1,5 UV-I 120 W/m 9,4 C 8,3 C 27,4 km/h (4 Bft) 100 %
18.10.2019 14:18 13,3 C 78 % 1005,3 hPa 0,0 l/m 0 min 0 min 0,000 mm 1,6 UV-I 133 W/m 9,5 C 10,8 C 25,7 km/h (4 Bft) 100 %
18.10.2019 14:16 13,4 C 78 % 1005,2 hPa 0,0 l/m 0 min 0 min 0,000 mm 1,8 UV-I 227 W/m 9,6 C 8,5 C 38,6 km/h (5 Bft) 98 %
18.10.2019 14:14 13,5 C 79 % 1005,2 hPa 0,0 l/m 0 min 0 min 0,000 mm 1,9 UV-I 248 W/m 9,9 C 10,3 C 27,4 km/h (4 Bft) 98 %
18.10.2019 14:12 13,5 C 78 % 1005,2 hPa 0,0 l/m 0 min 0 min 0,000 mm 2,0 UV-I 294 W/m 9,7 C 10,5 C 19,3 km/h (3 Bft) 98 %
18.10.2019 14:10 13,6 C 79 % 1005,3 hPa 0,0 l/m 2 min 0 min 0,000 mm 2,3 UV-I 571 W/m 10,0 C 9,6 C 30,6 km/h (5 Bft) 96 %
18.10.2019 14:08 13,5 C 79 % 1005,2 hPa 0,0 l/m 2 min 0 min 0,000 mm 2,5 UV-I 554 W/m 9,9 C 8,8 C 29,0 km/h (5 Bft) 98 %
18.10.2019 14:06 13,4 C 80 % 1005,2 hPa 0,0 l/m 2 min 0 min 0,000 mm 2,6 UV-I 520 W/m 10,0 C 11,3 C 27,4 km/h (4 Bft) 91 %
18.10.2019 14:04 13,3 C 80 % 1005,2 hPa 0,0 l/m 2 min 0 min 0,178 mm 2,6 UV-I 510 W/m 9,9 C 9,6 C 27,4 km/h (4 Bft) 95 %
18.10.2019 14:00 13,1 C 80 % 1005,0 hPa 0,0 l/m 2 min 0 min 0,000 mm 2,6 UV-I 512 W/m 9,7 C 9,0 C 24,1 km/h (4 Bft) 96 %
18.10.2019 13:58 12,9 C 81 % 1005,0 hPa 0,0 l/m 2 min 0 min 0,000 mm 2,6 UV-I 571 W/m 9,7 C 10,0 C 17,7 km/h (3 Bft) 91 %
18.10.2019 13:56 12,8 C 81 % 1005,0 hPa 0,0 l/m 2 min 0 min 0,000 mm 2,7 UV-I 586 W/m 9,6 C 8,8 C 30,6 km/h (5 Bft) 96 %
18.10.2019 13:54 12,7 C 81 % 1004,9 hPa 0,0 l/m 2 min 0 min 0,000 mm 2,6 UV-I 349 W/m 9,5 C 9,8 C 27,4 km/h (4 Bft) 94 %
18.10.2019 13:52 12,6 C 80 % 1004,7 hPa 0,0 l/m 0 min 0 min 0,000 mm 2,2 UV-I 255 W/m 9,2 C 7,8 C 29,0 km/h (5 Bft) 93 %
18.10.2019 13:50 12,6 C 80 % 1004,7 hPa 0,0 l/m 0 min 0 min 0,000 mm 2,1 UV-I 218 W/m 9,2 C 8,2 C 27,4 km/h (4 Bft) 96 %
18.10.2019 13:48 12,6 C 80 % 1004,6 hPa 0,0 l/m 0 min 0 min 0,000 mm 2,2 UV-I 217 W/m 9,2 C 9,1 C 25,7 km/h (4 Bft) 94 %
18.10.2019 13:46 12,6 C 80 % 1004,8 hPa 0,0 l/m 0 min 0 min 0,000 mm 2,3 UV-I 264 W/m 9,2 C 8,3 C 25,7 km/h (4 Bft) 94 %
18.10.2019 13:44 12,5 C 80 % 1004,8 hPa 0,0 l/m 2 min 0 min 0,000 mm 2,3 UV-I 444 W/m 9,1 C 8,0 C 25,7 km/h (4 Bft) 98 %
18.10.2019 13:42 12,4 C 80 % 1004,6 hPa 0,0 l/m 0 min 0 min 0,000 mm 1,9 UV-I 242 W/m 9,0 C 7,7 C 29,0 km/h (5 Bft) 94 %
18.10.2019 13:40 12,4 C 80 % 1004,7 hPa 0,0 l/m 0 min 0 min 0,000 mm 1,4 UV-I 149 W/m 9,0 C 8,8 C 19,3 km/h (3 Bft) 93 %
18.10.2019 13:38 12,5 C 80 % 1004,5 hPa 0,0 l/m 0 min 0 min 0,000 mm 1,1 UV-I 112 W/m 9,1 C 9,7 C 22,5 km/h (4 Bft) 98 %
18.10.2019 13:36 12,5 C 79 % 1004,7 hPa 0,0 l/m 0 min 0 min 0,000 mm 1,0 UV-I 103 W/m 9,0 C 9,7 C 25,7 km/h (4 Bft) 98 %
18.10.2019 13:34 12,6 C 79 % 1004,9 hPa 0,0 l/m 0 min 0 min 0,000 mm 1,2 UV-I 114 W/m 9,1 C 9,0 C 25,7 km/h (4 Bft) 98 %
18.10.2019 13:32 12,6 C 79 % 1005,0 hPa 0,0 l/m 0 min 2 min 0,000 mm 1,2 UV-I 120 W/m 9,1 C 6,9 C 30,6 km/h (5 Bft) 98 %
18.10.2019 13:30 12,7 C 81 % 1004,6 hPa 0,0 l/m 0 min 0 min 0,000 mm 1,4 UV-I 149 W/m 9,5 C 9,5 C 30,6 km/h (5 Bft) 100 %
18.10.2019 13:28 12,7 C 80 % 1004,5 hPa 0,0 l/m 0 min 0 min 0,000 mm 1,7 UV-I 173 W/m 9,3 C 9,4 C 30,6 km/h (5 Bft) 98 %
18.10.2019 13:26 12,8 C 81 % 1004,6 hPa 0,0 l/m 0 min 0 min 0,000 mm 1,8 UV-I 169 W/m 9,6 C 8,3 C 25,7 km/h (4 Bft) 100 %
18.10.2019 13:24 12,8 C 81 % 1004,4 hPa 0,0 l/m 0 min 0 min 0,000 mm 2,0 UV-I 215 W/m 9,6 C 9,1 C 24,1 km/h (4 Bft) 100 %
18.10.2019 13:22 12,8 C 82 % 1004,5 hPa 0,0 l/m 2 min 0 min 0,000 mm 2,3 UV-I 314 W/m 9,8 C 8,5 C 24,1 km/h (4 Bft) 96 %
18.10.2019 13:20 12,7 C 83 % 1004,6 hPa 0,0 l/m 2 min 0 min 0,000 mm 2,5 UV-I 311 W/m 9,9 C 8,6 C 24,1 km/h (4 Bft) 100 %
18.10.2019 13:18 12,5 C 82 % 1004,6 hPa 0,0 l/m 2 min 0 min 0,000 mm 2,5 UV-I 311 W/m 9,5 C 8,4 C 22,5 km/h (4 Bft) 100 %
18.10.2019 13:16 12,4 C 82 % 1004,6 hPa 0,0 l/m 0 min 0 min 0,000 mm 2,0 UV-I 266 W/m 9,4 C 8,2 C 24,1 km/h (4 Bft) 100 %
18.10.2019 13:14 12,4 C 82 % 1004,4 hPa 0,0 l/m 0 min 2 min 0,000 mm 1,9 UV-I 174 W/m 9,4 C 9,4 C 19,3 km/h (3 Bft) 100 %
18.10.2019 13:12 12,4 C 82 % 1004,7 hPa 0,0 l/m 0 min 2 min 0,000 mm 2,1 UV-I 224 W/m 9,4 C 7,7 C 32,2 km/h (5 Bft) 98 %
18.10.2019 13:10 12,3 C 83 % 1004,7 hPa 0,0 l/m 2 min 2 min 0,000 mm 2,4 UV-I 325 W/m 9,5 C 8,9 C 27,4 km/h (4 Bft) 98 %
18.10.2019 13:08 12,3 C 83 % 1004,7 hPa 0,0 l/m 2 min 2 min 0,000 mm 2,3 UV-I 327 W/m 9,5 C 9,2 C 22,5 km/h (4 Bft) 100 %
18.10.2019 13:06 12,2 C 83 % 1004,8 hPa 0,0 l/m 0 min 2 min 0,000 mm 1,8 UV-I 248 W/m 9,4 C 8,4 C 30,6 km/h (5 Bft) 98 %
18.10.2019 13:04 12,2 C 83 % 1004,9 hPa 0,0 l/m 0 min 2 min 0,152 mm 1,6 UV-I 180 W/m 9,4 C 9,4 C 29,0 km/h (5 Bft) 100 %
18.10.2019 13:00 12,1 C 83 % 1005,0 hPa 0,0 l/m 0 min 2 min 0,000 mm 1,6 UV-I 189 W/m 9,3 C 7,3 C 30,6 km/h (5 Bft) 100 %
18.10.2019 12:58 12,2 C 84 % 1005,0 hPa 0,0 l/m 0 min 2 min 0,000 mm 1,3 UV-I 155 W/m 9,6 C 8,0 C 22,5 km/h (4 Bft) 100 %
18.10.2019 12:56 12,2 C 84 % 1004,9 hPa 0,0 l/m 0 min 2 min 0,000 mm 1,3 UV-I 107 W/m 9,6 C 9,3 C 27,4 km/h (4 Bft) 100 %
18.10.2019 12:54 12,3 C 85 % 1005,0 hPa 0,0 l/m 0 min 2 min 0,000 mm 1,2 UV-I 99 W/m 9,9 C 10,7 C 20,9 km/h (4 Bft) 100 %
18.10.2019 12:52 12,3 C 85 % 1004,7 hPa 0,0 l/m 0 min 2 min 0,000 mm 1,4 UV-I 130 W/m 9,9 C 11,5 C 17,7 km/h (3 Bft) 96 %
18.10.2019 12:50 12,4 C 85 % 1004,6 hPa 0,0 l/m 0 min 2 min 0,000 mm 1,6 UV-I 148 W/m 9,9 C 9,2 C 24,1 km/h (4 Bft) 100 %
18.10.2019 12:48 12,4 C 86 % 1004,7 hPa 0,0 l/m 0 min 2 min 0,000 mm 1,6 UV-I 149 W/m 10,1 C 8,3 C 22,5 km/h (4 Bft) 98 %
18.10.2019 12:46 12,4 C 86 % 1004,7 hPa 0,0 l/m 0 min 2 min 0,000 mm 1,8 UV-I 168 W/m 10,1 C 6,8 C 35,4 km/h (5 Bft) 100 %
18.10.2019 12:44 12,5 C 87 % 1004,6 hPa 0,0 l/m 2 min 2 min 0,000 mm 2,1 UV-I 379 W/m 10,4 C 9,3 C 19,3 km/h (3 Bft) 100 %
18.10.2019 12:42 12,4 C 88 % 1004,5 hPa 0,0 l/m 2 min 2 min 0,000 mm 2,1 UV-I 470 W/m 10,5 C 8,0 C 30,6 km/h (5 Bft) 94 %
18.10.2019 12:40 12,4 C 88 % 1004,3 hPa 0,0 l/m 2 min 2 min 0,000 mm 2,2 UV-I 494 W/m 10,5 C 7,5 C 30,6 km/h (5 Bft) 98 %
18.10.2019 12:38 12,3 C 88 % 1004,4 hPa 0,0 l/m 2 min 2 min 0,000 mm 2,1 UV-I 436 W/m 10,4 C 9,1 C 22,5 km/h (4 Bft) 98 %
18.10.2019 12:36 12,2 C 88 % 1004,4 hPa 0,2 l/m 2 min 2 min 0,000 mm 1,9 UV-I 351 W/m 10,3 C 8,5 C 19,3 km/h (3 Bft) 96 %
18.10.2019 12:34 12,1 C 88 % 1004,3 hPa 0,0 l/m 2 min 2 min 0,000 mm 1,9 UV-I 577 W/m 10,2 C 7,1 C 30,6 km/h (5 Bft) 94 %
18.10.2019 12:32 11,9 C 89 % 1004,3 hPa 0,0 l/m 2 min 0 min 0,000 mm 2,1 UV-I 364 W/m 10,1 C 9,0 C 22,5 km/h (4 Bft) 98 %
18.10.2019 12:30 11,8 C 89 % 1004,5 hPa 0,0 l/m 0 min 0 min 0,000 mm 1,9 UV-I 268 W/m 10,0 C 8,4 C 19,3 km/h (3 Bft) 94 %
18.10.2019 12:28 11,8 C 89 % 1004,5 hPa 0,0 l/m 0 min 0 min 0,000 mm 1,9 UV-I 209 W/m 10,0 C 9,1 C 27,4 km/h (4 Bft) 98 %
18.10.2019 12:26 11,8 C 89 % 1004,5 hPa 0,0 l/m 0 min 0 min 0,000 mm 1,9 UV-I 167 W/m 10,0 C 9,3 C 20,9 km/h (4 Bft) 94 %
18.10.2019 12:24 11,8 C 90 % 1004,6 hPa 0,0 l/m 0 min 0 min 0,000 mm 2,2 UV-I 276 W/m 10,2 C 9,9 C 19,3 km/h (3 Bft) 95 %
18.10.2019 12:20 11,6 C 90 % 1004,8 hPa 0,0 l/m 2 min 2 min 0,000 mm 2,4 UV-I 480 W/m 10,0 C 9,5 C 17,7 km/h (3 Bft) 98 %
18.10.2019 12:18 11,4 C 91 % 1004,9 hPa 0,0 l/m 2 min 2 min 0,000 mm 2,6 UV-I 489 W/m 10,0 C 7,1 C 24,1 km/h (4 Bft) 87 %
18.10.2019 12:16 11,2 C 90 % 1004,8 hPa 0,0 l/m 2 min 2 min 0,000 mm 2,4 UV-I 425 W/m 9,6 C 8,5 C 20,9 km/h (4 Bft) 91 %
18.10.2019 12:14 11,1 C 89 % 1004,9 hPa 0,0 l/m 0 min 2 min 0,000 mm 1,9 UV-I 250 W/m 9,4 C 7,5 C 22,5 km/h (4 Bft) 83 %
18.10.2019 12:12 11,1 C 89 % 1005,0 hPa 0,0 l/m 0 min 2 min 0,000 mm 1,5 UV-I 164 W/m 9,4 C 7,4 C 25,7 km/h (4 Bft) 79 %
18.10.2019 12:10 11,1 C 88 % 1005,0 hPa 0,0 l/m 0 min 2 min 0,000 mm 1,3 UV-I 141 W/m 9,2 C 10,5 C 16,1 km/h (3 Bft) 70 %
18.10.2019 12:08 11,1 C 88 % 1005,1 hPa 0,2 l/m 0 min 2 min 0,000 mm 1,3 UV-I 127 W/m 9,2 C 7,6 C 24,1 km/h (4 Bft) 79 %
18.10.2019 12:06 11,2 C 88 % 1005,1 hPa 0,0 l/m 0 min 2 min 0,000 mm 1,2 UV-I 113 W/m 9,3 C 7,2 C 24,1 km/h (4 Bft) 98 %
18.10.2019 12:04 11,2 C 87 % 1005,1 hPa 0,0 l/m 0 min 2 min 0,178 mm 1,0 UV-I 96 W/m 9,1 C 6,7 C 30,6 km/h (5 Bft) 92 %
18.10.2019 12:00 11,5 C 86 % 1005,1 hPa 0,2 l/m 0 min 2 min 0,000 mm 1,0 UV-I 88 W/m 9,2 C 8,1 C 25,7 km/h (4 Bft) 96 %
18.10.2019 11:58 11,7 C 86 % 1004,9 hPa 0,0 l/m 0 min 2 min 0,000 mm 1,0 UV-I 74 W/m 9,4 C 9,5 C 22,5 km/h (4 Bft) 72 %
18.10.2019 11:56 11,8 C 85 % 1004,9 hPa 0,0 l/m 0 min 2 min 0,000 mm 1,1 UV-I 80 W/m 9,4 C 9,5 C 19,3 km/h (3 Bft) 91 %
18.10.2019 11:54 12,1 C 84 % 1004,9 hPa 0,0 l/m 0 min 2 min 0,000 mm 1,0 UV-I 81 W/m 9,5 C 8,4 C 30,6 km/h (5 Bft) 76 %
18.10.2019 11:52 12,4 C 83 % 1004,9 hPa 0,0 l/m 0 min 2 min 0,000 mm 1,0 UV-I 74 W/m 9,6 C 10,2 C 19,3 km/h (3 Bft) 72 %
18.10.2019 11:50 12,8 C 81 % 1004,9 hPa 0,2 l/m 0 min 2 min 0,000 mm 1,0 UV-I 80 W/m 9,6 C 9,7 C 30,6 km/h (5 Bft) 89 %
18.10.2019 11:48 13,3 C 80 % 1005,1 hPa 0,0 l/m 0 min 2 min 0,000 mm 0,9 UV-I 74 W/m 9,9 C 8,1 C 29,0 km/h (5 Bft) 91 %
18.10.2019 11:46 14,1 C 78 % 1005,2 hPa 0,4 l/m 0 min 2 min 0,000 mm 0,3 UV-I 53 W/m 10,3 C 9,8 C 37,0 km/h (5 Bft) 81 %
18.10.2019 11:44 14,8 C 76 % 1005,2 hPa 0,2 l/m 0 min 2 min 0,000 mm 0,0 UV-I 33 W/m 10,6 C 8,9 C 37,0 km/h (5 Bft) 91 %
18.10.2019 11:42 15,7 C 75 % 1005,1 hPa 0,0 l/m 0 min 2 min 0,000 mm 0,1 UV-I 33 W/m 11,3 C 8,0 C 56,3 km/h (7 Bft) 96 %
18.10.2019 11:40 16,2 C 78 % 1004,4 hPa 0,0 l/m 0 min 0 min 0,000 mm 0,8 UV-I 61 W/m 12,4 C 11,4 C 29,0 km/h (5 Bft) 94 %
18.10.2019 11:38 16,3 C 78 % 1003,7 hPa 0,0 l/m 0 min 0 min 0,000 mm 0,9 UV-I 106 W/m 12,5 C 10,4 C 35,4 km/h (5 Bft) 98 %
18.10.2019 11:36 16,4 C 78 % 1003,7 hPa 0,0 l/m 0 min 0 min 0,000 mm 1,2 UV-I 150 W/m 12,6 C 12,6 C 25,7 km/h (4 Bft) 98 %
18.10.2019 11:34 16,4 C 78 % 1003,6 hPa 0,0 l/m 0 min 0 min 0,000 mm 1,3 UV-I 167 W/m 12,6 C 11,1 C 30,6 km/h (5 Bft) 98 %
18.10.2019 11:32 16,6 C 78 % 1003,5 hPa 0,0 l/m 2 min 0 min 0,000 mm 1,7 UV-I 305 W/m 12,7 C 10,7 C 41,8 km/h (6 Bft) 96 %
18.10.2019 11:30 16,7 C 78 % 1003,5 hPa 0,0 l/m 2 min 0 min 0,000 mm 1,8 UV-I 475 W/m 12,8 C 10,2 C 43,5 km/h (6 Bft) 96 %
18.10.2019 11:28 16,7 C 79 % 1003,5 hPa 0,0 l/m 2 min 0 min 0,000 mm 1,8 UV-I 475 W/m 13,0 C 12,0 C 43,5 km/h (6 Bft) 96 %
18.10.2019 11:26 16,7 C 79 % 1003,5 hPa 0,0 l/m 2 min 0 min 0,000 mm 1,8 UV-I 422 W/m 13,0 C 11,1 C 35,4 km/h (5 Bft) 98 %
18.10.2019 11:24 16,7 C 79 % 1003,5 hPa 0,0 l/m 2 min 0 min 0,000 mm 2,0 UV-I 463 W/m 13,0 C 10,7 C 35,4 km/h (5 Bft) 96 %
18.10.2019 11:22 16,6 C 80 % 1003,6 hPa 0,0 l/m 2 min 0 min 0,000 mm 2,1 UV-I 488 W/m 13,1 C 12,2 C 32,2 km/h (5 Bft) 94 %
18.10.2019 11:20 16,6 C 80 % 1003,6 hPa 0,0 l/m 2 min 0 min 0,000 mm 1,9 UV-I 457 W/m 13,1 C 10,5 C 43,5 km/h (6 Bft) 94 %
18.10.2019 11:18 16,6 C 81 % 1003,6 hPa 0,0 l/m 2 min 0 min 0,000 mm 2,0 UV-I 466 W/m 13,3 C 13,8 C 20,9 km/h (4 Bft) 96 %
18.10.2019 11:16 16,4 C 81 % 1003,5 hPa 0,0 l/m 2 min 0 min 0,000 mm 2,0 UV-I 508 W/m 13,1 C 11,6 C 25,7 km/h (4 Bft) 96 %
18.10.2019 11:14 16,3 C 80 % 1003,5 hPa 0,0 l/m 2 min 0 min 0,000 mm 1,9 UV-I 479 W/m 12,8 C 10,5 C 33,8 km/h (5 Bft) 94 %
18.10.2019 11:12 16,2 C 81 % 1003,5 hPa 0,0 l/m 2 min 0 min 0,000 mm 1,8 UV-I 363 W/m 12,9 C 10,7 C 32,2 km/h (5 Bft) 96 %
18.10.2019 11:10 16,2 C 81 % 1003,5 hPa 0,0 l/m 2 min 0 min 0,000 mm 1,8 UV-I 386 W/m 12,9 C 11,6 C 27,4 km/h (4 Bft) 96 %
18.10.2019 11:08 16,1 C 81 % 1003,6 hPa 0,0 l/m 2 min 0 min 0,000 mm 1,8 UV-I 457 W/m 12,8 C 10,3 C 38,6 km/h (5 Bft) 96 %
18.10.2019 11:06 16,1 C 82 % 1003,6 hPa 0,0 l/m 2 min 0 min 0,000 mm 1,9 UV-I 457 W/m 13,0 C 12,5 C 22,5 km/h (4 Bft) 96 %
18.10.2019 11:04 15,9 C 83 % 1003,6 hPa 0,0 l/m 2 min 0 min 0,152 mm 1,7 UV-I 244 W/m 13,0 C 13,1 C 24,1 km/h (4 Bft) 96 %
18.10.2019 11:00 15,7 C 81 % 1003,7 hPa 0,0 l/m 0 min 0 min 0,000 mm 1,3 UV-I 101 W/m 12,4 C 10,7 C 33,8 km/h (5 Bft) 96 %
18.10.2019 10:58 15,8 C 82 % 1003,8 hPa 0,0 l/m 0 min 0 min 0,000 mm 1,3 UV-I 116 W/m 12,7 C 13,7 C 24,1 km/h (4 Bft) 93 %
18.10.2019 10:56 15,8 C 82 % 1003,8 hPa 0,0 l/m 0 min 0 min 0,000 mm 1,4 UV-I 136 W/m 12,7 C 12,8 C 22,5 km/h (4 Bft) 98 %
18.10.2019 10:54 15,8 C 82 % 1003,8 hPa 0,0 l/m 0 min 0 min 0,000 mm 1,4 UV-I 173 W/m 12,7 C 13,0 C 19,3 km/h (3 Bft) 98 %
18.10.2019 10:52 15,8 C 83 % 1003,9 hPa 0,0 l/m 0 min 0 min 0,000 mm 1,4 UV-I 197 W/m 12,9 C 13,0 C 19,3 km/h (3 Bft) 100 %
18.10.2019 10:50 15,7 C 82 % 1003,9 hPa 0,0 l/m 0 min 0 min 0,000 mm 1,5 UV-I 154 W/m 12,6 C 11,9 C 24,1 km/h (4 Bft) 98 %
18.10.2019 10:48 15,7 C 82 % 1003,9 hPa 0,0 l/m 0 min 0 min 0,000 mm 1,4 UV-I 175 W/m 12,6 C 11,5 C 24,1 km/h (4 Bft) 96 %
18.10.2019 10:46 15,7 C 82 % 1003,9 hPa 0,0 l/m 0 min 0 min 0,000 mm 1,4 UV-I 185 W/m 12,6 C 11,4 C 27,4 km/h (4 Bft) 96 %
18.10.2019 10:44 15,7 C 82 % 1003,9 hPa 0,0 l/m 0 min 0 min 0,000 mm 1,2 UV-I 146 W/m 12,6 C 12,4 C 20,9 km/h (4 Bft) 100 %
18.10.2019 10:42 15,6 C 82 % 1004,0 hPa 0,0 l/m 0 min 0 min 0,000 mm 1,2 UV-I 165 W/m 12,5 C 12,0 C 22,5 km/h (4 Bft) 100 %
18.10.2019 10:40 15,7 C 82 % 1004,0 hPa 0,0 l/m 0 min 0 min 0,000 mm 1,1 UV-I 137 W/m 12,6 C 12,8 C 19,3 km/h (3 Bft) 98 %
18.10.2019 10:38 15,7 C 82 % 1004,2 hPa 0,0 l/m 0 min 0 min 0,000 mm 1,1 UV-I 125 W/m 12,6 C 12,3 C 20,9 km/h (4 Bft) 100 %
18.10.2019 10:36 15,7 C 82 % 1004,2 hPa 0,0 l/m 0 min 0 min 0,000 mm 1,0 UV-I 125 W/m 12,6 C 11,0 C 27,4 km/h (4 Bft) 100 %
18.10.2019 10:34 15,8 C 82 % 1004,3 hPa 0,0 l/m 0 min 0 min 0,000 mm 1,0 UV-I 97 W/m 12,7 C 11,4 C 29,0 km/h (5 Bft) 100 %
18.10.2019 10:32 15,8 C 82 % 1004,2 hPa 0,0 l/m 0 min 0 min 0,000 mm 1,1 UV-I 201 W/m 12,7 C 12,5 C 22,5 km/h (4 Bft) 96 %
18.10.2019 10:30 15,8 C 82 % 1004,3 hPa 0,0 l/m 2 min 0 min 0,000 mm 1,2 UV-I 218 W/m 12,7 C 11,2 C 29,0 km/h (5 Bft) 98 %
18.10.2019 10:28 15,8 C 82 % 1004,3 hPa 0,0 l/m 2 min 0 min 0,000 mm 1,2 UV-I 272 W/m 12,7 C 11,6 C 29,0 km/h (5 Bft) 98 %
18.10.2019 10:26 15,7 C 83 % 1004,3 hPa 0,0 l/m 2 min 0 min 0,000 mm 1,2 UV-I 410 W/m 12,8 C 11,7 C 25,7 km/h (4 Bft) 98 %
18.10.2019 10:24 15,6 C 83 % 1004,3 hPa 0,0 l/m 2 min 0 min 0,000 mm 1,3 UV-I 338 W/m 12,7 C 11,3 C 25,7 km/h (4 Bft) 100 %
18.10.2019 10:22 15,6 C 83 % 1004,3 hPa 0,0 l/m 2 min 0 min 0,000 mm 1,3 UV-I 338 W/m 12,7 C 11,1 C 24,1 km/h (4 Bft) 98 %
18.10.2019 10:20 15,5 C 83 % 1004,1 hPa 0,0 l/m 2 min 0 min 0,000 mm 1,3 UV-I 339 W/m 12,6 C 10,5 C 35,4 km/h (5 Bft) 100 %
18.10.2019 10:18 15,4 C 83 % 1004,2 hPa 0,0 l/m 2 min 0 min 0,000 mm 1,2 UV-I 209 W/m 12,5 C 9,9 C 38,6 km/h (5 Bft) 98 %
18.10.2019 10:16 15,4 C 83 % 1004,2 hPa 0,0 l/m 0 min 0 min 0,000 mm 1,2 UV-I 177 W/m 12,5 C 11,6 C 24,1 km/h (4 Bft) 98 %
18.10.2019 10:14 15,4 C 83 % 1004,2 hPa 0,0 l/m 0 min 0 min 0,000 mm 1,2 UV-I 161 W/m 12,5 C 11,3 C 20,9 km/h (4 Bft) 96 %
18.10.2019 10:12 15,4 C 83 % 1004,2 hPa 0,0 l/m 0 min 0 min 0,000 mm 1,1 UV-I 136 W/m 12,5 C 11,7 C 27,4 km/h (4 Bft) 98 %
18.10.2019 10:10 15,4 C 84 % 1004,2 hPa 0,0 l/m 0 min 0 min 0,000 mm 1,1 UV-I 174 W/m 12,7 C 11,0 C 27,4 km/h (4 Bft) 98 %
18.10.2019 10:08 15,4 C 84 % 1004,3 hPa 0,0 l/m 0 min 0 min 0,000 mm 1,1 UV-I 168 W/m 12,7 C 14,3 C 16,1 km/h (3 Bft) 98 %
18.10.2019 10:06 15,4 C 84 % 1004,4 hPa 0,0 l/m 0 min 0 min 0,000 mm 0,9 UV-I 136 W/m 12,7 C 14,4 C 16,1 km/h (3 Bft) 98 %
18.10.2019 10:04 15,3 C 84 % 1004,4 hPa 0,0 l/m 0 min 0 min 0,102 mm 1,0 UV-I 130 W/m 12,6 C 13,0 C 17,7 km/h (3 Bft) 98 %
18.10.2019 10:00 15,3 C 84 % 1004,5 hPa 0,0 l/m 0 min 0 min 0,000 mm 1,0 UV-I 161 W/m 12,6 C 13,3 C 16,1 km/h (3 Bft) 98 %
18.10.2019 09:58 15,2 C 84 % 1004,4 hPa 0,0 l/m 2 min 0 min 0,000 mm 1,0 UV-I 212 W/m 12,5 C 14,0 C 17,7 km/h (3 Bft) 98 %
18.10.2019 09:56 15,2 C 84 % 1004,4 hPa 0,0 l/m 2 min 0 min 0,000 mm 1,0 UV-I 180 W/m 12,5 C 11,1 C 22,5 km/h (4 Bft) 93 %
18.10.2019 09:54 15,2 C 84 % 1004,5 hPa 0,0 l/m 0 min 0 min 0,000 mm 1,0 UV-I 124 W/m 12,5 C 13,3 C 19,3 km/h (3 Bft) 94 %
18.10.2019 09:52 15,2 C 84 % 1004,6 hPa 0,0 l/m 0 min 0 min 0,000 mm 1,0 UV-I 105 W/m 12,5 C 12,9 C 16,1 km/h (3 Bft) 96 %
18.10.2019 09:50 15,3 C 84 % 1004,6 hPa 0,0 l/m 0 min 0 min 0,000 mm 1,0 UV-I 102 W/m 12,6 C 12,6 C 20,9 km/h (4 Bft) 96 %
18.10.2019 09:48 15,2 C 85 % 1004,5 hPa 0,0 l/m 2 min 0 min 0,000 mm 1,0 UV-I 188 W/m 12,7 C 12,4 C 19,3 km/h (3 Bft) 98 %
18.10.2019 09:46 15,1 C 84 % 1004,5 hPa 0,0 l/m 2 min 0 min 0,000 mm 1,0 UV-I 192 W/m 12,4 C 9,2 C 40,2 km/h (6 Bft) 94 %
18.10.2019 09:44 15,0 C 85 % 1004,5 hPa 0,0 l/m 2 min 0 min 0,000 mm 1,0 UV-I 275 W/m 12,5 C 11,5 C 29,0 km/h (5 Bft) 98 %
18.10.2019 09:42 15,0 C 85 % 1004,7 hPa 0,0 l/m 0 min 0 min 0,000 mm 1,0 UV-I 101 W/m 12,5 C 12,6 C 16,1 km/h (3 Bft) 98 %
18.10.2019 09:40 14,9 C 84 % 1004,7 hPa 0,0 l/m 0 min 0 min 0,000 mm 0,9 UV-I 91 W/m 12,2 C 10,8 C 25,7 km/h (4 Bft) 98 %
18.10.2019 09:38 14,9 C 84 % 1004,8 hPa 0,0 l/m 0 min 0 min 0,000 mm 0,9 UV-I 55 W/m 12,2 C 10,2 C 35,4 km/h (5 Bft) 98 %
18.10.2019 09:36 15,0 C 84 % 1004,8 hPa 0,0 l/m 0 min 0 min 0,000 mm 0,9 UV-I 49 W/m 12,3 C 11,0 C 20,9 km/h (4 Bft) 98 %
18.10.2019 09:34 15,0 C 84 % 1004,8 hPa 0,0 l/m 0 min 0 min 0,000 mm 0,9 UV-I 56 W/m 12,3 C 10,1 C 27,4 km/h (4 Bft) 96 %
18.10.2019 09:32 15,0 C 85 % 1004,9 hPa 0,0 l/m 0 min 0 min 0,000 mm 0,9 UV-I 54 W/m 12,5 C 12,9 C 17,7 km/h (3 Bft) 93 %
18.10.2019 09:30 15,0 C 85 % 1004,8 hPa 0,0 l/m 0 min 0 min 0,000 mm 0,9 UV-I 55 W/m 12,5 C 14,0 C 17,7 km/h (3 Bft) 100 %
18.10.2019 09:28 15,0 C 85 % 1004,8 hPa 0,0 l/m 2 min 0 min 0,000 mm 0,8 UV-I 154 W/m 12,5 C 12,1 C 22,5 km/h (4 Bft) 98 %
18.10.2019 09:26 15,0 C 85 % 1004,9 hPa 0,0 l/m 0 min 0 min 0,000 mm 0,8 UV-I 116 W/m 12,5 C 11,7 C 19,3 km/h (3 Bft) 96 %
18.10.2019 09:24 15,0 C 85 % 1004,8 hPa 0,0 l/m 2 min 0 min 0,000 mm 0,8 UV-I 129 W/m 12,5 C 12,1 C 17,7 km/h (3 Bft) 100 %
18.10.2019 09:22 15,0 C 86 % 1005,0 hPa 0,0 l/m 2 min 0 min 0,000 mm 0,8 UV-I 200 W/m 12,7 C 11,9 C 24,1 km/h (4 Bft) 98 %
18.10.2019 09:20 14,9 C 86 % 1005,1 hPa 0,0 l/m 2 min 0 min 0,000 mm 0,8 UV-I 185 W/m 12,6 C 12,1 C 19,3 km/h (3 Bft) 100 %
18.10.2019 09:18 14,8 C 86 % 1005,1 hPa 0,0 l/m 2 min 0 min 0,000 mm 0,8 UV-I 169 W/m 12,5 C 11,8 C 19,3 km/h (3 Bft) 98 %
18.10.2019 09:16 14,7 C 86 % 1005,0 hPa 0,0 l/m 2 min 0 min 0,000 mm 0,8 UV-I 155 W/m 12,4 C 10,7 C 22,5 km/h (4 Bft) 100 %
18.10.2019 09:14 14,6 C 86 % 1004,9 hPa 0,0 l/m 2 min 0 min 0,000 mm 0,8 UV-I 160 W/m 12,3 C 11,8 C 16,1 km/h (3 Bft) 98 %
18.10.2019 09:12 14,6 C 86 % 1004,9 hPa 0,0 l/m 2 min 0 min 0,000 mm 0,8 UV-I 127 W/m 12,3 C 13,3 C 14,5 km/h (3 Bft) 98 %
18.10.2019 09:10 14,5 C 86 % 1004,9 hPa 0,0 l/m 0 min 0 min 0,000 mm 0,8 UV-I 97 W/m 12,2 C 12,5 C 17,7 km/h (3 Bft) 100 %
18.10.2019 09:08 14,4 C 86 % 1005,0 hPa 0,0 l/m 2 min 0 min 0,000 mm 0,8 UV-I 117 W/m 12,1 C 11,0 C 17,7 km/h (3 Bft) 100 %
18.10.2019 09:06 14,4 C 87 % 1004,9 hPa 0,0 l/m 0 min 0 min 0,000 mm 0,7 UV-I 89 W/m 12,3 C 12,3 C 22,5 km/h (4 Bft) 100 %
18.10.2019 09:04 14,4 C 86 % 1004,9 hPa 0,0 l/m 0 min 0 min 0,025 mm 0,6 UV-I 67 W/m 12,1 C 12,5 C 16,1 km/h (3 Bft) 100 %
18.10.2019 09:00 14,3 C 87 % 1005,0 hPa 0,0 l/m 0 min 0 min 0,000 mm 0,7 UV-I 60 W/m 12,2 C 11,6 C 17,7 km/h (3 Bft) 98 %
18.10.2019 08:58 14,2 C 87 % 1005,0 hPa 0,0 l/m 0 min 0 min 0,000 mm 0,4 UV-I 48 W/m 12,1 C 13,9 C 12,9 km/h (3 Bft) 100 %
18.10.2019 08:56 14,2 C 87 % 1005,0 hPa 0,0 l/m 0 min 0 min 0,000 mm 0,5 UV-I 43 W/m 12,1 C 12,9 C 11,3 km/h (2 Bft) 100 %
18.10.2019 08:54 14,2 C 87 % 1005,1 hPa 0,0 l/m 0 min 0 min 0,000 mm 0,1 UV-I 42 W/m 12,1 C 12,6 C 12,9 km/h (3 Bft) 100 %
18.10.2019 08:52 14,2 C 87 % 1005,0 hPa 0,0 l/m 0 min 0 min 0,000 mm 0,0 UV-I 36 W/m 12,1 C 13,8 C 14,5 km/h (3 Bft) 100 %
18.10.2019 08:50 14,2 C 86 % 1005,0 hPa 0,0 l/m 0 min 0 min 0,000 mm 0,0 UV-I 39 W/m 11,9 C 14,2 C 8,0 km/h (2 Bft) 100 %
18.10.2019 08:48 14,2 C 87 % 1005,0 hPa 0,0 l/m 0 min 0 min 0,000 mm 0,0 UV-I 35 W/m 12,1 C 13,6 C 11,3 km/h (2 Bft) 98 %
18.10.2019 08:46 14,2 C 87 % 1005,0 hPa 0,0 l/m 0 min 0 min 0,000 mm 0,0 UV-I 33 W/m 12,1 C 13,6 C 14,5 km/h (3 Bft) 98 %
18.10.2019 08:44 14,2 C 87 % 1005,0 hPa 0,0 l/m 0 min 0 min 0,000 mm 0,0 UV-I 32 W/m 12,1 C 12,1 C 16,1 km/h (3 Bft) 98 %
18.10.2019 08:42 14,1 C 87 % 1004,9 hPa 0,0 l/m 0 min 0 min 0,000 mm 0,0 UV-I 31 W/m 12,0 C 13,3 C 17,7 km/h (3 Bft) 100 %
18.10.2019 08:40 14,1 C 87 % 1005,0 hPa 0,0 l/m 0 min 0 min 0,000 mm 0,0 UV-I 31 W/m 12,0 C 11,8 C 16,1 km/h (3 Bft) 98 %
18.10.2019 08:38 14,1 C 87 % 1005,0 hPa 0,0 l/m 0 min 0 min 0,000 mm 0,0 UV-I 28 W/m 12,0 C 11,1 C 19,3 km/h (3 Bft) 100 %
18.10.2019 08:36 14,1 C 86 % 1005,0 hPa 0,0 l/m 0 min 0 min 0,000 mm 0,0 UV-I 27 W/m 11,8 C 14,1 C 11,3 km/h (2 Bft) 98 %
18.10.2019 08:34 14,1 C 86 % 1005,0 hPa 0,0 l/m 0 min 0 min 0,000 mm 0,0 UV-I 27 W/m 11,8 C 14,1 C 8,0 km/h (2 Bft) 96 %
18.10.2019 08:32 14,1 C 87 % 1005,1 hPa 0,0 l/m 0 min 0 min 0,000 mm 0,0 UV-I 25 W/m 12,0 C 14,1 C 9,7 km/h (2 Bft) 96 %
18.10.2019 08:30 14,1 C 86 % 1005,1 hPa 0,0 l/m 0 min 0 min 0,000 mm 0,0 UV-I 26 W/m 11,8 C 14,1 C 9,7 km/h (2 Bft) 98 %
18.10.2019 08:28 14,2 C 86 % 1005,2 hPa 0,0 l/m 0 min 0 min 0,000 mm 0,0 UV-I 27 W/m 11,9 C 13,7 C 9,7 km/h (2 Bft) 98 %
18.10.2019 08:26 14,2 C 86 % 1005,2 hPa 0,0 l/m 0 min 0 min 0,000 mm 0,0 UV-I 24 W/m 11,9 C 13,1 C 11,3 km/h (2 Bft) 96 %
18.10.2019 08:24 14,2 C 86 % 1005,1 hPa 0,0 l/m 0 min 0 min 0,000 mm 0,0 UV-I 23 W/m 11,9 C 12,2 C 16,1 km/h (3 Bft) 98 %
18.10.2019 08:22 14,2 C 86 % 1005,1 hPa 0,0 l/m 0 min 0 min 0,000 mm 0,0 UV-I 21 W/m 11,9 C 11,6 C 19,3 km/h (3 Bft) 96 %
18.10.2019 08:20 14,2 C 86 % 1005,2 hPa 0,0 l/m 0 min 0 min 0,000 mm 0,0 UV-I 19 W/m 11,9 C 13,3 C 14,5 km/h (3 Bft) 96 %
18.10.2019 08:18 14,2 C 86 % 1005,2 hPa 0,0 l/m 0 min 0 min 0,000 mm 0,0 UV-I 17 W/m 11,9 C 13,2 C 11,3 km/h (2 Bft) 96 %
18.10.2019 08:16 14,2 C 86 % 1005,2 hPa 0,0 l/m 0 min 0 min 0,000 mm 0,0 UV-I 15 W/m 11,9 C 11,4 C 17,7 km/h (3 Bft) 96 %
18.10.2019 08:14 14,2 C 86 % 1005,1 hPa 0,0 l/m 0 min 0 min 0,000 mm 0,0 UV-I 14 W/m 11,9 C 11,2 C 19,3 km/h (3 Bft) 90 %
18.10.2019 08:12 14,2 C 86 % 1005,1 hPa 0,0 l/m 0 min 0 min 0,000 mm 0,0 UV-I 12 W/m 11,9 C 10,2 C 33,8 km/h (5 Bft) 94 %
18.10.2019 08:10 14,2 C 86 % 1005,2 hPa 0,0 l/m 0 min 0 min 0,000 mm 0,0 UV-I 11 W/m 11,9 C 14,2 C 16,1 km/h (3 Bft) 96 %
18.10.2019 08:08 14,3 C 86 % 1005,1 hPa 0,0 l/m 0 min 0 min 0,000 mm 0,0 UV-I 9 W/m 12,0 C 14,3 C 4,8 km/h (1 Bft) 100 %
18.10.2019 08:06 14,3 C 86 % 1005,1 hPa 0,0 l/m 0 min 0 min 0,000 mm 0,0 UV-I 8 W/m 12,0 C 14,3 C 9,7 km/h (2 Bft) 98 %
18.10.2019 08:04 14,3 C 86 % 1005,1 hPa 0,0 l/m 0 min 0 min 0,000 mm 0,0 UV-I 7 W/m 12,0 C 14,3 C 14,5 km/h (3 Bft) 96 %
18.10.2019 08:00 14,3 C 87 % 1005,1 hPa 0,0 l/m 0 min 0 min 0,026 mm 0,0 UV-I 5 W/m 12,2 C 14,1 C 12,9 km/h (3 Bft) 98 %
18.10.2019 07:58 14,2 C 87 % 1005,1 hPa 0,0 l/m 0 min 0 min 0,000 mm 0,0 UV-I 4 W/m 12,1 C 11,2 C 16,1 km/h (3 Bft) 98 %
18.10.2019 07:56 14,2 C 87 % 1005,2 hPa 0,0 l/m 0 min 0 min 0,000 mm 0,0 UV-I 2 W/m 12,1 C 10,8 C 27,4 km/h (4 Bft) 96 %
18.10.2019 07:54 14,2 C 87 % 1005,1 hPa 0,0 l/m 0 min 0 min 0,000 mm 0,0 UV-I 0 W/m 12,1 C 11,1 C 19,3 km/h (3 Bft) 96 %
18.10.2019 07:52 14,2 C 87 % 1005,1 hPa 0,0 l/m 0 min 0 min 0,000 mm 0,0 UV-I 0 W/m 12,1 C 14,2 C 11,3 km/h (2 Bft) 94 %
18.10.2019 07:50 14,2 C 88 % 1005,1 hPa 0,0 l/m 0 min 0 min 0,000 mm 0,0 UV-I 0 W/m 12,2 C 12,5 C 19,3 km/h (3 Bft) 98 %
18.10.2019 07:48 14,2 C 88 % 1005,1 hPa 0,0 l/m 0 min 0 min 0,000 mm 0,0 UV-I 0 W/m 12,2 C 13,3 C 14,5 km/h (3 Bft) 100 %
18.10.2019 07:46 14,2 C 88 % 1005,1 hPa 0,0 l/m 0 min 0 min 0,000 mm 0,0 UV-I 0 W/m 12,2 C 12,5 C 14,5 km/h (3 Bft) 100 %
18.10.2019 07:44 14,2 C 88 % 1005,1 hPa 0,0 l/m 0 min 0 min 0,000 mm 0,0 UV-I 0 W/m 12,2 C 11,9 C 17,7 km/h (3 Bft) 100 %
18.10.2019 07:42 14,2 C 88 % 1005,2 hPa 0,0 l/m 0 min 0 min 0,000 mm 0,0 UV-I 0 W/m 12,2 C 11,1 C 17,7 km/h (3 Bft) 100 %
18.10.2019 07:40 14,2 C 88 % 1005,2 hPa 0,0 l/m 0 min 0 min 0,000 mm 0,0 UV-I 0 W/m 12,2 C 12,0 C 12,9 km/h (3 Bft) 100 %
18.10.2019 07:38 14,2 C 88 % 1005,3 hPa 0,0 l/m 0 min 0 min 0,000 mm 0,0 UV-I 0 W/m 12,2 C 11,6 C 16,1 km/h (3 Bft) 100 %
18.10.2019 07:36 14,2 C 88 % 1005,2 hPa 0,0 l/m 0 min 0 min 0,000 mm 0,0 UV-I 0 W/m 12,2 C 13,3 C 12,9 km/h (3 Bft) 98 %
18.10.2019 07:34 14,2 C 88 % 1005,4 hPa 0,0 l/m 0 min 0 min 0,000 mm 0,0 UV-I 0 W/m 12,2 C 14,2 C 11,3 km/h (2 Bft) 98 %
18.10.2019 07:32 14,3 C 88 % 1005,3 hPa 0,0 l/m 0 min 0 min 0,000 mm 0,0 UV-I 0 W/m 12,3 C 14,3 C 11,3 km/h (2 Bft) 95 %
18.10.2019 07:30 14,3 C 89 % 1005,4 hPa 0,0 l/m 0 min 0 min 0,000 mm 0,0 UV-I 0 W/m 12,5 C 13,9 C 12,9 km/h (3 Bft) 100 %
18.10.2019 07:28 14,3 C 89 % 1005,3 hPa 0,0 l/m 0 min 0 min 0,000 mm 0,0 UV-I 0 W/m 12,5 C 12,8 C 17,7 km/h (3 Bft) 98 %
18.10.2019 07:26 14,3 C 89 % 1005,3 hPa 0,0 l/m 0 min 0 min 0,000 mm 0,0 UV-I 0 W/m 12,5 C 14,3 C 9,7 km/h (2 Bft) 98 %
18.10.2019 07:24 14,3 C 89 % 1005,3 hPa 0,0 l/m 0 min 0 min 0,000 mm 0,0 UV-I 0 W/m 12,5 C 12,9 C 16,1 km/h (3 Bft) 100 %
18.10.2019 07:22 14,3 C 89 % 1005,3 hPa 0,0 l/m 0 min 0 min 0,000 mm 0,0 UV-I 0 W/m 12,5 C 12,1 C 17,7 km/h (3 Bft) 100 %
18.10.2019 07:20 14,3 C 89 % 1005,2 hPa 0,0 l/m 0 min 0 min 0,000 mm 0,0 UV-I 0 W/m 12,5 C 11,4 C 20,9 km/h (4 Bft) 100 %
18.10.2019 07:18 14,3 C 89 % 1005,2 hPa 0,0 l/m 0 min 0 min 0,000 mm 0,0 UV-I 0 W/m 12,5 C 13,9 C 14,5 km/h (3 Bft) 100 %
18.10.2019 07:16 14,3 C 89 % 1005,2 hPa 0,0 l/m 0 min 0 min 0,000 mm 0,0 UV-I 0 W/m 12,5 C 13,4 C 16,1 km/h (3 Bft) 98 %
18.10.2019 07:14 14,3 C 89 % 1005,2 hPa 0,0 l/m 0 min 0 min 0,000 mm 0,0 UV-I 0 W/m 12,5 C 12,6 C 16,1 km/h (3 Bft) 96 %
18.10.2019 07:12 14,3 C 89 % 1005,2 hPa 0,0 l/m 0 min 0 min 0,000 mm 0,0 UV-I 0 W/m 12,5 C 11,8 C 16,1 km/h (3 Bft) 98 %
18.10.2019 07:10 14,4 C 89 % 1005,2 hPa 0,0 l/m 0 min 0 min 0,000 mm 0,0 UV-I 0 W/m 12,6 C 13,2 C 14,5 km/h (3 Bft) 96 %
18.10.2019 07:08 14,4 C 89 % 1005,3 hPa 0,0 l/m 0 min 0 min 0,000 mm 0,0 UV-I 0 W/m 12,6 C 13,9 C 12,9 km/h (3 Bft) 96 %
18.10.2019 07:06 14,4 C 89 % 1005,4 hPa 0,0 l/m 0 min 0 min 0,000 mm 0,0 UV-I 0 W/m 12,6 C 12,5 C 20,9 km/h (4 Bft) 96 %
18.10.2019 07:04 14,4 C 89 % 1005,4 hPa 0,0 l/m 0 min 0 min 0,025 mm 0,0 UV-I 0 W/m 12,6 C 13,1 C 12,9 km/h (3 Bft) 96 %
18.10.2019 07:00 14,5 C 88 % 1005,5 hPa 0,0 l/m 0 min 0 min 0,000 mm 0,0 UV-I 0 W/m 12,5 C 14,3 C 11,3 km/h (2 Bft) 96 %
18.10.2019 06:58 14,6 C 88 % 1005,5 hPa 0,0 l/m 0 min 0 min 0,000 mm 0,0 UV-I 0 W/m 12,6 C 14,4 C 9,7 km/h (2 Bft) 89 %
18.10.2019 06:56 14,6 C 88 % 1005,5 hPa 0,0 l/m 0 min 0 min 0,000 mm 0,0 UV-I 0 W/m 12,6 C 12,9 C 16,1 km/h (3 Bft) 96 %
18.10.2019 06:54 14,6 C 87 % 1005,5 hPa 0,0 l/m 0 min 0 min 0,000 mm 0,0 UV-I 0 W/m 12,5 C 12,5 C 16,1 km/h (3 Bft) 94 %
18.10.2019 06:52 14,6 C 87 % 1005,5 hPa 0,0 l/m 0 min 2 min 0,000 mm 0,0 UV-I 0 W/m 12,5 C 12,3 C 17,7 km/h (3 Bft) 93 %
18.10.2019 06:50 14,6 C 87 % 1005,6 hPa 0,0 l/m 0 min 0 min 0,000 mm 0,0 UV-I 0 W/m 12,5 C 12,5 C 17,7 km/h (3 Bft) 94 %
18.10.2019 06:48 14,7 C 87 % 1005,5 hPa 0,0 l/m 0 min 0 min 0,000 mm 0,0 UV-I 0 W/m 12,6 C 13,0 C 16,1 km/h (3 Bft) 96 %
18.10.2019 06:46 14,7 C 87 % 1005,6 hPa 0,0 l/m 0 min 0 min 0,000 mm 0,0 UV-I 0 W/m 12,6 C 11,7 C 20,9 km/h (4 Bft) 98 %
18.10.2019 06:44 14,7 C 87 % 1005,6 hPa 0,0 l/m 0 min 0 min 0,000 mm 0,0 UV-I 0 W/m 12,6 C 11,6 C 22,5 km/h (4 Bft) 98 %
18.10.2019 06:42 14,7 C 87 % 1005,7 hPa 0,0 l/m 0 min 0 min 0,000 mm 0,0 UV-I 0 W/m 12,6 C 11,5 C 22,5 km/h (4 Bft) 98 %
18.10.2019 06:40 14,7 C 87 % 1005,6 hPa 0,0 l/m 0 min 0 min 0,000 mm 0,0 UV-I 0 W/m 12,6 C 11,1 C 22,5 km/h (4 Bft) 98 %
18.10.2019 06:38 14,7 C 87 % 1005,7 hPa 0,0 l/m 0 min 0 min 0,000 mm 0,0 UV-I 0 W/m 12,6 C 10,9 C 27,4 km/h (4 Bft) 96 %
18.10.2019 06:36 14,6 C 87 % 1005,7 hPa 0,0 l/m 0 min 0 min 0,000 mm 0,0 UV-I 0 W/m 12,5 C 10,9 C 24,1 km/h (4 Bft) 94 %
18.10.2019 06:34 14,6 C 87 % 1005,7 hPa 0,0 l/m 0 min 0 min 0,000 mm 0,0 UV-I 0 W/m 12,5 C 11,4 C 25,7 km/h (4 Bft) 96 %
18.10.2019 06:32 14,6 C 87 % 1005,8 hPa 0,0 l/m 0 min 0 min 0,000 mm 0,0 UV-I 0 W/m 12,5 C 11,0 C 22,5 km/h (4 Bft) 98 %
18.10.2019 06:30 14,6 C 87 % 1005,7 hPa 0,0 l/m 0 min 0 min 0,000 mm 0,0 UV-I 0 W/m 12,5 C 11,1 C 20,9 km/h (4 Bft) 96 %
18.10.2019 06:28 14,6 C 87 % 1005,7 hPa 0,0 l/m 0 min 0 min 0,000 mm 0,0 UV-I 0 W/m 12,5 C 11,9 C 17,7 km/h (3 Bft) 96 %
18.10.2019 06:26 14,6 C 87 % 1005,7 hPa 0,0 l/m 0 min 0 min 0,000 mm 0,0 UV-I 0 W/m 12,5 C 11,3 C 20,9 km/h (4 Bft) 96 %
18.10.2019 06:24 14,6 C 87 % 1005,8 hPa 0,0 l/m 0 min 0 min 0,000 mm 0,0 UV-I 0 W/m 12,5 C 10,3 C 25,7 km/h (4 Bft) 95 %
18.10.2019 06:20 14,6 C 87 % 1005,8 hPa 0,0 l/m 0 min 0 min 0,000 mm 0,0 UV-I 0 W/m 12,5 C 11,6 C 22,5 km/h (4 Bft) 96 %
18.10.2019 06:18 14,6 C 87 % 1005,8 hPa 0,0 l/m 0 min 0 min 0,000 mm 0,0 UV-I 0 W/m 12,5 C 12,8 C 14,5 km/h (3 Bft) 94 %
18.10.2019 06:16 14,6 C 87 % 1005,9 hPa 0,0 l/m 0 min 0 min 0,000 mm 0,0 UV-I 0 W/m 12,5 C 13,5 C 14,5 km/h (3 Bft) 96 %
18.10.2019 06:14 14,6 C 87 % 1005,9 hPa 0,0 l/m 0 min 0 min 0,000 mm 0,0 UV-I 0 W/m 12,5 C 13,0 C 17,7 km/h (3 Bft) 96 %
18.10.2019 06:12 14,7 C 87 % 1005,9 hPa 0,0 l/m 0 min 0 min 0,000 mm 0,0 UV-I 0 W/m 12,6 C 13,0 C 17,7 km/h (3 Bft) 96 %
18.10.2019 06:10 14,7 C 87 % 1005,9 hPa 0,0 l/m 0 min 0 min 0,000 mm 0,0 UV-I 0 W/m 12,6 C 11,6 C 24,1 km/h (4 Bft) 91 %
18.10.2019 06:08 14,7 C 87 % 1005,9 hPa 0,0 l/m 0 min 0 min 0,000 mm 0,0 UV-I 0 W/m 12,6 C 12,3 C 16,1 km/h (3 Bft) 94 %
18.10.2019 06:06 14,7 C 87 % 1005,9 hPa 0,0 l/m 0 min 0 min 0,000 mm 0,0 UV-I 0 W/m 12,6 C 11,2 C 24,1 km/h (4 Bft) 96 %
18.10.2019 06:04 14,6 C 88 % 1005,9 hPa 0,0 l/m 0 min 0 min 0,025 mm 0,0 UV-I 0 W/m 12,6 C 10,7 C 27,4 km/h (4 Bft) 96 %
18.10.2019 06:00 14,5 C 88 % 1006,0 hPa 0,0 l/m 0 min 0 min 0,000 mm 0,0 UV-I 0 W/m 12,5 C 11,4 C 20,9 km/h (4 Bft) 91 %
18.10.2019 05:58 14,5 C 88 % 1006,0 hPa 0,0 l/m 0 min 0 min 0,000 mm 0,0 UV-I 0 W/m 12,5 C 11,5 C 24,1 km/h (4 Bft) 94 %
18.10.2019 05:56 14,4 C 88 % 1005,9 hPa 0,0 l/m 0 min 0 min 0,000 mm 0,0 UV-I 0 W/m 12,4 C 10,7 C 33,8 km/h (5 Bft) 94 %
18.10.2019 05:54 14,4 C 88 % 1006,0 hPa 0,0 l/m 0 min 0 min 0,000 mm 0,0 UV-I 0 W/m 12,4 C 13,3 C 14,5 km/h (3 Bft) 94 %
18.10.2019 05:52 14,4 C 88 % 1006,0 hPa 0,0 l/m 0 min 0 min 0,000 mm 0,0 UV-I 0 W/m 12,4 C 13,2 C 12,9 km/h (3 Bft) 98 %
18.10.2019 05:50 14,5 C 88 % 1006,1 hPa 0,0 l/m 0 min 0 min 0,000 mm 0,0 UV-I 0 W/m 12,5 C 13,6 C 12,9 km/h (3 Bft) 96 %
18.10.2019 05:48 14,5 C 88 % 1006,1 hPa 0,0 l/m 0 min 0 min 0,000 mm 0,0 UV-I 0 W/m 12,5 C 11,3 C 20,9 km/h (4 Bft) 100 %
18.10.2019 05:46 14,5 C 88 % 1006,0 hPa 0,0 l/m 0 min 0 min 0,000 mm 0,0 UV-I 0 W/m 12,5 C 11,7 C 19,3 km/h (3 Bft) 98 %
18.10.2019 05:44 14,5 C 88 % 1006,1 hPa 0,0 l/m 0 min 0 min 0,000 mm 0,0 UV-I 0 W/m 12,5 C 9,9 C 27,4 km/h (4 Bft) 98 %
18.10.2019 05:42 14,4 C 88 % 1006,0 hPa 0,0 l/m 0 min 0 min 0,000 mm 0,0 UV-I 0 W/m 12,4 C 11,2 C 17,7 km/h (3 Bft) 98 %
18.10.2019 05:40 14,4 C 88 % 1006,1 hPa 0,0 l/m 0 min 0 min 0,000 mm 0,0 UV-I 0 W/m 12,4 C 12,5 C 22,5 km/h (4 Bft) 98 %
18.10.2019 05:38 14,5 C 88 % 1006,0 hPa 0,0 l/m 0 min 0 min 0,000 mm 0,0 UV-I 0 W/m 12,5 C 11,2 C 25,7 km/h (4 Bft) 96 %
18.10.2019 05:36 14,4 C 88 % 1006,0 hPa 0,0 l/m 0 min 0 min 0,000 mm 0,0 UV-I 0 W/m 12,4 C 11,0 C 22,5 km/h (4 Bft) 96 %
18.10.2019 05:34 14,4 C 88 % 1006,0 hPa 0,0 l/m 0 min 0 min 0,000 mm 0,0 UV-I 0 W/m 12,4 C 11,2 C 19,3 km/h (3 Bft) 94 %
18.10.2019 05:32 14,4 C 88 % 1006,2 hPa 0,0 l/m 0 min 0 min 0,000 mm 0,0 UV-I 0 W/m 12,4 C 12,1 C 22,5 km/h (4 Bft) 98 %
18.10.2019 05:30 14,4 C 88 % 1006,2 hPa 0,0 l/m 0 min 0 min 0,000 mm 0,0 UV-I 0 W/m 12,4 C 11,1 C 17,7 km/h (3 Bft) 96 %
18.10.2019 05:28 14,4 C 88 % 1006,1 hPa 0,0 l/m 0 min 0 min 0,000 mm 0,0 UV-I 0 W/m 12,4 C 10,5 C 24,1 km/h (4 Bft) 98 %
18.10.2019 05:26 14,4 C 88 % 1006,1 hPa 0,0 l/m 0 min 0 min 0,000 mm 0,0 UV-I 0 W/m 12,4 C 11,6 C 24,1 km/h (4 Bft) 96 %
18.10.2019 05:24 14,4 C 88 % 1006,0 hPa 0,0 l/m 0 min 0 min 0,000 mm 0,0 UV-I 0 W/m 12,4 C 11,0 C 22,5 km/h (4 Bft) 100 %
18.10.2019 05:22 14,4 C 88 % 1006,0 hPa 0,0 l/m 0 min 0 min 0,000 mm 0,0 UV-I 0 W/m 12,4 C 11,0 C 27,4 km/h (4 Bft) 100 %
18.10.2019 05:20 14,5 C 88 % 1006,0 hPa 0,0 l/m 0 min 0 min 0,000 mm 0,0 UV-I 0 W/m 12,5 C 12,7 C 16,1 km/h (3 Bft) 98 %
18.10.2019 05:18 14,4 C 88 % 1006,1 hPa 0,0 l/m 0 min 0 min 0,000 mm 0,0 UV-I 0 W/m 12,4 C 11,2 C 22,5 km/h (4 Bft) 100 %
18.10.2019 05:16 14,4 C 88 % 1006,1 hPa 0,0 l/m 0 min 0 min 0,000 mm 0,0 UV-I 0 W/m 12,4 C 10,3 C 22,5 km/h (4 Bft) 100 %
18.10.2019 05:14 14,4 C 88 % 1006,2 hPa 0,0 l/m 0 min 0 min 0,000 mm 0,0 UV-I 0 W/m 12,4 C 11,2 C 22,5 km/h (4 Bft) 98 %
18.10.2019 05:12 14,4 C 88 % 1006,3 hPa 0,0 l/m 0 min 0 min 0,000 mm 0,0 UV-I 0 W/m 12,4 C 10,1 C 24,1 km/h (4 Bft) 96 %
18.10.2019 05:10 14,4 C 88 % 1006,3 hPa 0,0 l/m 0 min 0 min 0,000 mm 0,0 UV-I 0 W/m 12,4 C 11,2 C 22,5 km/h (4 Bft) 100 %
18.10.2019 05:08 14,4 C 88 % 1006,3 hPa 0,0 l/m 0 min 0 min 0,000 mm 0,0 UV-I 0 W/m 12,4 C 11,5 C 19,3 km/h (3 Bft) 100 %
18.10.2019 05:06 14,4 C 88 % 1006,4 hPa 0,0 l/m 0 min 0 min 0,000 mm 0,0 UV-I 0 W/m 12,4 C 12,6 C 17,7 km/h (3 Bft) 98 %
18.10.2019 05:04 14,4 C 88 % 1006,4 hPa 0,0 l/m 0 min 0 min 0,026 mm 0,0 UV-I 0 W/m 12,4 C 11,3 C 19,3 km/h (3 Bft) 100 %
18.10.2019 05:00 14,4 C 88 % 1006,3 hPa 0,0 l/m 0 min 0 min 0,000 mm 0,0 UV-I 0 W/m 12,4 C 11,8 C 17,7 km/h (3 Bft) 100 %
18.10.2019 04:58 14,4 C 88 % 1006,2 hPa 0,0 l/m 0 min 0 min 0,000 mm 0,0 UV-I 0 W/m 12,4 C 10,8 C 20,9 km/h (4 Bft) 98 %
18.10.2019 04:56 14,4 C 88 % 1006,2 hPa 0,0 l/m 0 min 0 min 0,000 mm 0,0 UV-I 0 W/m 12,4 C 11,4 C 19,3 km/h (3 Bft) 100 %
18.10.2019 04:54 14,3 C 88 % 1006,2 hPa 0,0 l/m 0 min 0 min 0,000 mm 0,0 UV-I 0 W/m 12,3 C 11,7 C 19,3 km/h (3 Bft) 100 %
18.10.2019 04:52 14,3 C 88 % 1006,2 hPa 0,0 l/m 0 min 0 min 0,000 mm 0,0 UV-I 0 W/m 12,3 C 12,4 C 16,1 km/h (3 Bft) 96 %
18.10.2019 04:50 14,3 C 88 % 1006,2 hPa 0,0 l/m 0 min 0 min 0,000 mm 0,0 UV-I 0 W/m 12,3 C 11,1 C 19,3 km/h (3 Bft) 100 %
18.10.2019 04:48 14,3 C 88 % 1006,1 hPa 0,0 l/m 0 min 0 min 0,000 mm 0,0 UV-I 0 W/m 12,3 C 11,6 C 17,7 km/h (3 Bft) 100 %
18.10.2019 04:46 14,3 C 88 % 1006,2 hPa 0,0 l/m 0 min 0 min 0,000 mm 0,0 UV-I 0 W/m 12,3 C 10,8 C 22,5 km/h (4 Bft) 98 %
18.10.2019 04:44 14,3 C 88 % 1006,3 hPa 0,0 l/m 0 min 0 min 0,000 mm 0,0 UV-I 0 W/m 12,3 C 13,2 C 12,9 km/h (3 Bft) 98 %
18.10.2019 04:42 14,3 C 88 % 1006,3 hPa 0,0 l/m 0 min 0 min 0,000 mm 0,0 UV-I 0 W/m 12,3 C 12,4 C 17,7 km/h (3 Bft) 98 %
18.10.2019 04:40 14,3 C 88 % 1006,4 hPa 0,0 l/m 0 min 0 min 0,000 mm 0,0 UV-I 0 W/m 12,3 C 12,1 C 16,1 km/h (3 Bft) 98 %
18.10.2019 04:38 14,3 C 88 % 1006,4 hPa 0,0 l/m 0 min 0 min 0,000 mm 0,0 UV-I 0 W/m 12,3 C 12,0 C 25,7 km/h (4 Bft) 98 %
18.10.2019 04:36 14,3 C 89 % 1006,5 hPa 0,0 l/m 0 min 0 min 0,000 mm 0,0 UV-I 0 W/m 12,5 C 11,7 C 19,3 km/h (3 Bft) 98 %
18.10.2019 04:34 14,3 C 89 % 1006,6 hPa 0,0 l/m 0 min 0 min 0,000 mm 0,0 UV-I 0 W/m 12,5 C 12,3 C 14,5 km/h (3 Bft) 96 %
18.10.2019 04:32 14,2 C 89 % 1006,6 hPa 0,0 l/m 0 min 0 min 0,000 mm 0,0 UV-I 0 W/m 12,4 C 11,6 C 17,7 km/h (3 Bft) 96 %
18.10.2019 04:30 14,2 C 89 % 1006,7 hPa 0,0 l/m 0 min 0 min 0,000 mm 0,0 UV-I 0 W/m 12,4 C 10,8 C 24,1 km/h (4 Bft) 96 %
18.10.2019 04:28 14,2 C 89 % 1006,8 hPa 0,0 l/m 0 min 0 min 0,000 mm 0,0 UV-I 0 W/m 12,4 C 12,5 C 16,1 km/h (3 Bft) 96 %
18.10.2019 04:26 14,2 C 89 % 1006,9 hPa 0,0 l/m 0 min 0 min 0,000 mm 0,0 UV-I 0 W/m 12,4 C 11,4 C 19,3 km/h (3 Bft) 98 %
18.10.2019 04:24 14,1 C 89 % 1006,9 hPa 0,0 l/m 0 min 0 min 0,000 mm 0,0 UV-I 0 W/m 12,3 C 11,8 C 17,7 km/h (3 Bft) 96 %
18.10.2019 04:22 14,1 C 89 % 1007,0 hPa 0,0 l/m 0 min 0 min 0,000 mm 0,0 UV-I 0 W/m 12,3 C 12,8 C 14,5 km/h (3 Bft) 94 %
18.10.2019 04:20 14,1 C 89 % 1007,0 hPa 0,0 l/m 0 min 0 min 0,000 mm 0,0 UV-I 0 W/m 12,3 C 12,7 C 14,5 km/h (3 Bft) 94 %
18.10.2019 04:18 14,1 C 89 % 1007,1 hPa 0,0 l/m 0 min 0 min 0,000 mm 0,0 UV-I 0 W/m 12,3 C 11,7 C 16,1 km/h (3 Bft) 94 %
18.10.2019 04:16 14,2 C 89 % 1007,0 hPa 0,0 l/m 0 min 0 min 0,000 mm 0,0 UV-I 0 W/m 12,4 C 11,8 C 14,5 km/h (3 Bft) 96 %
18.10.2019 04:14 14,1 C 89 % 1007,1 hPa 0,0 l/m 0 min 0 min 0,000 mm 0,0 UV-I 0 W/m 12,3 C 11,1 C 17,7 km/h (3 Bft) 91 %
18.10.2019 04:12 14,1 C 89 % 1007,1 hPa 0,0 l/m 0 min 0 min 0,000 mm 0,0 UV-I 0 W/m 12,3 C 10,6 C 19,3 km/h (3 Bft) 96 %
18.10.2019 04:10 14,1 C 89 % 1007,0 hPa 0,0 l/m 0 min 0 min 0,000 mm 0,0 UV-I 0 W/m 12,3 C 10,2 C 24,1 km/h (4 Bft) 94 %
18.10.2019 04:08 14,1 C 89 % 1007,0 hPa 0,0 l/m 0 min 0 min 0,000 mm 0,0 UV-I 0 W/m 12,3 C 10,4 C 22,5 km/h (4 Bft) 96 %
18.10.2019 04:06 14,1 C 89 % 1007,0 hPa 0,0 l/m 0 min 0 min 0,000 mm 0,0 UV-I 0 W/m 12,3 C 11,0 C 19,3 km/h (3 Bft) 96 %
18.10.2019 04:04 14,1 C 89 % 1007,1 hPa 0,0 l/m 0 min 0 min 0,000 mm 0,0 UV-I 0 W/m 12,3 C 12,3 C 14,5 km/h (3 Bft) 92 %
18.10.2019 04:00 14,1 C 89 % 1007,2 hPa 0,0 l/m 0 min 0 min 0,025 mm 0,0 UV-I 0 W/m 12,3 C 11,0 C 17,7 km/h (3 Bft) 100 %
_ Min-Zeit 03:06 16:48 11:10 - - - - - - 19:46 14:44 19:22 12:10
Minimum _ 10,2 C 73 % 1003,5 hPa - - - - - - 7,9 C 6,7 C 1,6 km/h (1 Bft) 70 %
_ Max-Zeit 11:24 12:18 19:54 11:46 09:08 06:52 16:04 13:56 13:56 11:18 06:58 11:42 04:00
Maximum _ 16,7 C 91 % 1008,1 hPa 0,4 l/m 2 min 2 min 0,229 mm 2,7 UV-I 586 W/m 13,3 C 14,4 C 56,3 km/h
W-SW (7 Bft)
100 %
Durchschnitt _ 13,0 C 84 % 1006,2 hPa #1,4 l/m #0 min. #0 min. #0,051 mm 0,0 UV-I 0 W/m 10,3 C 10,9 C 17,5 km/h (3 Bft) 97 %